Time,TemperatureF,DewpointF,PressureIn,WindDirection,WindDirectionDegrees,WindSpeedMPH,WindSpeedGustMPH,Humidity,HourlyPrecipIn,Conditions,Clouds,dailyrainin,SoftwareType,DateUTC
2013-05-07 00:00:00,51.7,51.2,30.09,ENE,69,16.0,16.0,98,0.00,,OVC002,0.00,VWS V14.01,2013-05-07 04:00:00,
2013-05-07 00:01:00,51.7,51.2,30.09,ENE,76,15.0,17.0,98,0.00,,OVC002,0.00,VWS V14.01,2013-05-07 04:01:00,
2013-05-07 00:02:00,51.7,51.2,30.09,ENE,65,11.0,15.0,98,0.00,,,0.00,VWS V14.01,2013-05-07 04:02:00,
2013-05-07 00:03:00,51.7,51.2,30.09,ENE,61,10.0,15.0,98,0.00,,,0.00,VWS V14.01,2013-05-07 04:03:00,
2013-05-07 00:04:00,51.7,51.2,30.09,ENE,71,14.0,15.0,98,0.00,,,0.00,VWS V14.01,2013-05-07 04:04:00,
2013-05-07 00:05:00,51.7,51.2,30.09,ENE,74,14.0,15.0,98,0.00,,,0.00,VWS V14.01,2013-05-07 04:05:00,
2013-05-07 00:06:00,51.7,51.2,30.09,ENE,72,14.0,15.0,98,0.00,,OVC002,0.00,VWS V14.01,2013-05-07 04:06:00,
2013-05-07 00:07:00,51.7,51.2,30.09,ENE,61,16.0,16.0,98,0.00,,,0.00,VWS V14.01,2013-05-07 04:07:00,
2013-05-07 00:08:00,51.7,51.2,30.09,ENE,69,14.0,16.0,98,0.00,,,0.00,VWS V14.01,2013-05-07 04:08:00,
2013-05-07 00:09:00,51.7,51.2,30.09,ENE,69,13.0,15.0,98,0.00,,,0.00,VWS V14.01,2013-05-07 04:09:00,
2013-05-07 00:10:00,51.7,51.2,30.09,ENE,63,15.0,17.0,98,0.00,,,0.00,VWS V14.01,2013-05-07 04:10:00,
2013-05-07 00:11:00,51.8,51.3,30.09,ENE,67,15.0,17.0,98,0.00,,OVC002,0.00,VWS V14.01,2013-05-07 04:11:00,
2013-05-07 00:12:00,51.8,51.3,30.09,ENE,67,13.0,16.0,98,0.00,,,0.00,VWS V14.01,2013-05-07 04:12:00,
2013-05-07 00:13:00,51.8,51.3,30.09,ENE,75,16.0,16.0,98,0.00,,,0.00,VWS V14.01,2013-05-07 04:13:00,
2013-05-07 00:14:00,51.8,51.3,30.09,East,82,19.0,19.0,98,0.00,,,0.00,VWS V14.01,2013-05-07 04:14:00,
2013-05-07 00:15:00,51.8,51.3,30.09,ENE,70,15.0,19.0,98,0.00,,,0.00,VWS V14.01,2013-05-07 04:15:00,
2013-05-07 00:16:00,51.8,51.3,30.09,ENE,64,15.0,19.0,98,0.00,,OVC002,0.00,VWS V14.01,2013-05-07 04:16:00,
2013-05-07 00:17:00,51.8,51.3,30.09,ENE,66,10.0,15.0,98,0.00,,,0.00,VWS V14.01,2013-05-07 04:17:00,
2013-05-07 00:18:00,51.7,51.2,30.09,ENE,68,8.0,11.0,98,0.00,,,0.00,VWS V14.01,2013-05-07 04:18:00,
2013-05-07 00:19:00,51.8,51.3,30.09,ENE,78,9.0,13.0,98,0.00,,,0.00,VWS V14.01,2013-05-07 04:19:00,
2013-05-07 00:20:00,51.8,51.3,30.09,ENE,74,13.0,14.0,98,0.00,,,0.00,VWS V14.01,2013-05-07 04:20:00,
2013-05-07 00:21:00,51.8,51.3,30.09,ENE,66,13.0,14.0,98,0.00,,OVC002,0.00,VWS V14.01,2013-05-07 04:21:00,
2013-05-07 00:22:00,51.8,51.3,30.09,ENE,67,15.0,15.0,98,0.00,,,0.00,VWS V14.01,2013-05-07 04:22:00,
2013-05-07 00:23:00,51.9,51.3,30.09,ENE,71,14.0,16.0,98,0.00,,,0.00,VWS V14.01,2013-05-07 04:23:00,
2013-05-07 00:24:00,51.9,51.3,30.09,ENE,77,15.0,16.0,98,0.00,,,0.00,VWS V14.01,2013-05-07 04:24:00,
2013-05-07 00:25:00,51.9,51.3,30.09,ENE,61,14.0,16.0,98,0.00,,,0.00,VWS V14.01,2013-05-07 04:25:00,
2013-05-07 00:26:00,51.9,51.4,30.09,ENE,78,13.0,16.0,98,0.00,,OVC002,0.00,VWS V14.01,2013-05-07 04:26:00,
2013-05-07 00:27:00,51.9,51.3,30.09,ENE,69,12.0,16.0,98,0.00,,,0.00,VWS V14.01,2013-05-07 04:27:00,
2013-05-07 00:28:00,51.9,51.3,30.08,ENE,64,14.0,16.0,98,0.00,,,0.00,VWS V14.01,2013-05-07 04:28:00,
2013-05-07 00:29:00,51.9,51.3,30.08,NE,55,9.0,14.0,98,0.00,,,0.00,VWS V14.01,2013-05-07 04:29:00,
2013-05-07 00:30:00,51.9,51.3,30.08,ENE,69,10.0,15.0,98,0.00,,,0.00,VWS V14.01,2013-05-07 04:30:00,
2013-05-07 00:31:00,51.9,51.4,30.08,ENE,69,10.0,15.0,98,0.00,,OVC002,0.00,VWS V14.01,2013-05-07 04:31:00,
2013-05-07 00:32:00,51.9,51.3,30.08,ENE,67,16.0,17.0,98,0.00,,,0.00,VWS V14.01,2013-05-07 04:32:00,
2013-05-07 00:33:00,51.9,51.3,30.08,ENE,69,14.0,16.0,98,0.00,,,0.00,VWS V14.01,2013-05-07 04:33:00,
2013-05-07 00:34:00,51.9,51.3,30.08,ENE,66,16.0,17.0,98,0.00,,,0.00,VWS V14.01,2013-05-07 04:34:00,
2013-05-07 00:35:00,51.9,51.3,30.08,ENE,62,12.0,16.0,98,0.00,,,0.00,VWS V14.01,2013-05-07 04:35:00,
2013-05-07 00:36:00,51.9,51.4,30.08,ENE,67,12.0,16.0,98,0.00,,OVC002,0.00,VWS V14.01,2013-05-07 04:36:00,
2013-05-07 00:38:00,51.9,51.3,30.08,ENE,78,13.0,14.0,98,0.00,,,0.00,VWS V14.01,2013-05-07 04:38:00,
2013-05-07 00:39:00,51.8,51.3,30.08,ENE,66,14.0,15.0,98,0.00,,,0.00,VWS V14.01,2013-05-07 04:39:00,
2013-05-07 00:40:00,51.9,51.3,30.08,ENE,59,13.0,16.0,98,0.00,,,0.00,VWS V14.01,2013-05-07 04:40:00,
2013-05-07 00:41:00,51.9,51.4,30.08,ENE,71,14.0,16.0,98,0.00,,OVC002,0.00,VWS V14.01,2013-05-07 04:41:00,
2013-05-07 00:42:00,51.9,51.3,30.08,ENE,66,16.0,17.0,98,0.00,,,0.00,VWS V14.01,2013-05-07 04:42:00,
2013-05-07 00:43:00,51.9,51.3,30.08,ENE,63,16.0,16.0,98,0.00,,,0.00,VWS V14.01,2013-05-07 04:43:00,
2013-05-07 00:44:00,51.9,51.3,30.08,ENE,67,14.0,16.0,98,0.00,,,0.00,VWS V14.01,2013-05-07 04:44:00,
2013-05-07 00:45:00,51.8,51.3,30.08,ENE,61,14.0,16.0,98,0.00,,,0.00,VWS V14.01,2013-05-07 04:45:00,
2013-05-07 00:46:00,51.8,51.3,30.08,ENE,61,14.0,16.0,98,0.00,,OVC002,0.00,VWS V14.01,2013-05-07 04:46:00,
2013-05-07 00:47:00,51.8,51.3,30.08,NE,55,15.0,17.0,98,0.00,,,0.00,VWS V14.01,2013-05-07 04:47:00,
2013-05-07 00:48:00,51.8,51.3,30.08,ENE,67,16.0,16.0,98,0.00,,,0.00,VWS V14.01,2013-05-07 04:48:00,
2013-05-07 00:49:00,51.8,51.3,30.08,ENE,76,11.0,16.0,98,0.00,,,0.00,VWS V14.01,2013-05-07 04:49:00,
2013-05-07 00:50:00,51.8,51.3,30.08,ENE,70,13.0,14.0,98,0.00,,,0.00,VWS V14.01,2013-05-07 04:50:00,
2013-05-07 00:51:00,51.8,51.3,30.08,ENE,74,14.0,14.0,98,0.00,,OVC002,0.00,VWS V14.01,2013-05-07 04:51:00,
2013-05-07 00:52:00,51.8,51.3,30.08,ENE,66,15.0,16.0,98,0.00,,,0.00,VWS V14.01,2013-05-07 04:52:00,
2013-05-07 00:53:00,51.8,51.3,30.08,ENE,74,13.0,16.0,98,0.00,,,0.00,VWS V14.01,2013-05-07 04:53:00,
2013-05-07 00:54:00,51.9,51.3,30.08,ENE,70,15.0,15.0,98,0.00,,,0.00,VWS V14.01,2013-05-07 04:54:00,
2013-05-07 00:55:00,51.9,51.3,30.08,ENE,71,13.0,16.0,98,0.00,,,0.00,VWS V14.01,2013-05-07 04:55:00,
2013-05-07 00:56:00,51.9,51.4,30.08,ENE,66,11.0,16.0,98,0.00,,OVC002,0.00,VWS V14.01,2013-05-07 04:56:00,
2013-05-07 00:57:00,51.9,51.3,30.08,ENE,69,15.0,17.0,98,0.00,,,0.00,VWS V14.01,2013-05-07 04:57:00,
2013-05-07 00:58:00,51.9,51.3,30.08,ENE,75,11.0,15.0,98,0.00,,,0.00,VWS V14.01,2013-05-07 04:58:00,
2013-05-07 00:59:00,51.9,51.3,30.08,ENE,60,13.0,16.0,98,0.00,,,0.00,VWS V14.01,2013-05-07 04:59:00,
2013-05-07 01:00:00,51.9,51.3,30.08,ENE,71,16.0,16.0,98,0.00,,,0.00,VWS V14.01,2013-05-07 05:00:00,
2013-05-07 01:01:00,51.9,51.4,30.08,ENE,65,12.0,16.0,98,0.00,,OVC002,0.00,VWS V14.01,2013-05-07 05:01:00,
2013-05-07 01:02:00,51.9,51.3,30.08,ENE,74,14.0,14.0,98,0.00,,,0.00,VWS V14.01,2013-05-07 05:02:00,
2013-05-07 01:03:00,51.9,51.3,30.08,ENE,62,17.0,17.0,98,0.00,,,0.00,VWS V14.01,2013-05-07 05:03:00,
2013-05-07 01:04:00,51.9,51.3,30.08,ENE,63,16.0,17.0,98,0.00,,,0.00,VWS V14.01,2013-05-07 05:04:00,
2013-05-07 01:05:00,51.9,51.3,30.08,ENE,64,14.0,17.0,98,0.00,,,0.00,VWS V14.01,2013-05-07 05:05:00,
2013-05-07 01:06:00,51.9,51.4,30.08,ENE,69,15.0,17.0,98,0.00,,OVC002,0.00,VWS V14.01,2013-05-07 05:06:00,
2013-05-07 01:07:00,51.9,51.3,30.07,ENE,66,14.0,15.0,98,0.00,,,0.00,VWS V14.01,2013-05-07 05:07:00,
2013-05-07 01:08:00,51.9,51.3,30.07,ENE,69,14.0,16.0,98,0.00,,,0.00,VWS V14.01,2013-05-07 05:08:00,
2013-05-07 01:09:00,51.9,51.3,30.07,ENE,59,15.0,16.0,98,0.00,,,0.00,VWS V14.01,2013-05-07 05:09:00,
2013-05-07 01:10:00,51.9,51.3,30.07,NE,56,17.0,18.0,98,0.00,,,0.00,VWS V14.01,2013-05-07 05:10:00,
2013-05-07 01:11:00,51.9,51.4,30.07,ENE,61,18.0,18.0,98,0.00,,OVC003,0.00,VWS V14.01,2013-05-07 05:11:00,
2013-05-07 01:12:00,51.9,51.3,30.07,ENE,67,14.0,14.0,98,0.00,,,0.00,VWS V14.01,2013-05-07 05:12:00,
2013-05-07 01:13:00,51.9,51.3,30.07,ENE,57,14.0,15.0,98,0.00,,,0.00,VWS V14.01,2013-05-07 05:13:00,
2013-05-07 01:14:00,51.9,51.3,30.07,ENE,70,16.0,16.0,98,0.00,,,0.00,VWS V14.01,2013-05-07 05:14:00,
2013-05-07 01:15:00,51.9,51.3,30.07,ENE,71,13.0,16.0,98,0.00,,,0.00,VWS V14.01,2013-05-07 05:15:00,
2013-05-07 01:16:00,51.9,51.4,30.07,ENE,74,15.0,16.0,98,0.00,,OVC003,0.00,VWS V14.01,2013-05-07 05:16:00,
2013-05-07 01:17:00,51.9,51.3,30.07,ENE,67,15.0,15.0,98,0.00,,,0.00,VWS V14.01,2013-05-07 05:17:00,
2013-05-07 01:18:00,51.9,51.3,30.07,ENE,67,15.0,16.0,98,0.00,,,0.00,VWS V14.01,2013-05-07 05:18:00,
2013-05-07 01:19:00,51.9,51.3,30.07,ENE,65,14.0,16.0,98,0.00,,,0.00,VWS V14.01,2013-05-07 05:19:00,
2013-05-07 01:20:00,51.9,51.3,30.08,ENE,76,14.0,18.0,98,0.00,,,0.00,VWS V14.01,2013-05-07 05:20:00,
2013-05-07 01:21:00,51.9,51.4,30.08,NE,50,13.0,18.0,98,0.00,,OVC003,0.00,VWS V14.01,2013-05-07 05:21:00,
2013-05-07 01:22:00,51.8,51.3,30.07,ENE,67,17.0,19.0,98,0.00,,,0.00,VWS V14.01,2013-05-07 05:22:00,
2013-05-07 01:23:00,51.8,51.3,30.07,ENE,62,16.0,17.0,98,0.00,,,0.00,VWS V14.01,2013-05-07 05:23:00,
2013-05-07 01:24:00,51.8,51.3,30.07,ENE,58,13.0,18.0,98,0.00,,,0.00,VWS V14.01,2013-05-07 05:24:00,
2013-05-07 01:25:00,51.8,51.3,30.07,ENE,62,16.0,16.0,98,0.00,,,0.00,VWS V14.01,2013-05-07 05:25:00,
2013-05-07 01:26:00,51.8,51.3,30.07,ENE,63,13.0,15.0,98,0.00,,OVC003,0.00,VWS V14.01,2013-05-07 05:26:00,
2013-05-07 01:27:00,51.8,51.3,30.07,ENE,59,15.0,17.0,98,0.00,,,0.00,VWS V14.01,2013-05-07 05:27:00,
2013-05-07 01:28:00,51.8,51.3,30.07,ENE,66,14.0,17.0,98,0.00,,,0.00,VWS V14.01,2013-05-07 05:28:00,
2013-05-07 01:29:00,51.8,51.3,30.07,ENE,58,12.0,15.0,98,0.00,,,0.00,VWS V14.01,2013-05-07 05:29:00,
2013-05-07 01:30:00,51.7,51.2,30.07,ENE,66,13.0,15.0,98,0.00,,,0.00,VWS V14.01,2013-05-07 05:30:00,
2013-05-07 01:31:00,51.7,51.2,30.07,ENE,57,15.0,15.0,98,0.00,,OVC003,0.00,VWS V14.01,2013-05-07 05:31:00,
2013-05-07 01:32:00,51.7,51.2,30.07,ENE,62,17.0,17.0,98,0.00,,,0.00,VWS V14.01,2013-05-07 05:32:00,
2013-05-07 01:33:00,51.7,51.2,30.07,ENE,63,17.0,17.0,98,0.00,,,0.00,VWS V14.01,2013-05-07 05:33:00,
2013-05-07 01:34:00,51.7,51.2,30.07,NE,52,12.0,17.0,98,0.00,,,0.00,VWS V14.01,2013-05-07 05:34:00,
2013-05-07 01:35:00,51.7,51.2,30.07,ENE,62,13.0,16.0,98,0.00,,,0.00,VWS V14.01,2013-05-07 05:35:00,
2013-05-07 01:36:00,51.7,51.2,30.07,ENE,63,13.0,16.0,98,0.00,,OVC002,0.00,VWS V14.01,2013-05-07 05:36:00,
2013-05-07 01:37:00,51.7,51.2,30.07,ENE,66,13.0,16.0,98,0.00,,,0.00,VWS V14.01,2013-05-07 05:37:00,
2013-05-07 01:38:00,51.6,51.1,30.07,ENE,59,15.0,15.0,98,0.00,,,0.00,VWS V14.01,2013-05-07 05:38:00,
2013-05-07 01:39:00,51.7,51.2,30.07,ENE,66,15.0,18.0,98,0.00,,,0.00,VWS V14.01,2013-05-07 05:39:00,
2013-05-07 01:40:00,51.7,51.2,30.07,ENE,67,14.0,16.0,98,0.00,,,0.00,VWS V14.01,2013-05-07 05:40:00,
2013-05-07 01:41:00,51.7,51.2,30.07,ENE,63,16.0,16.0,98,0.00,,OVC002,0.00,VWS V14.01,2013-05-07 05:41:00,
2013-05-07 01:42:00,51.6,51.1,30.07,ENE,71,11.0,16.0,98,0.00,,,0.00,VWS V14.01,2013-05-07 05:42:00,
2013-05-07 01:43:00,51.7,51.2,30.07,ENE,57,14.0,16.0,98,0.00,,,0.00,VWS V14.01,2013-05-07 05:43:00,
2013-05-07 01:44:00,51.7,51.2,30.07,ENE,70,15.0,16.0,98,0.00,,,0.00,VWS V14.01,2013-05-07 05:44:00,
2013-05-07 01:45:00,51.6,51.1,30.07,ENE,63,13.0,15.0,98,0.00,,,0.00,VWS V14.01,2013-05-07 05:45:00,
2013-05-07 01:46:00,51.7,51.2,30.07,ENE,69,14.0,15.0,98,0.00,,OVC002,0.00,VWS V14.01,2013-05-07 05:46:00,
2013-05-07 01:47:00,51.7,51.2,30.07,ENE,67,13.0,14.0,98,0.00,,,0.00,VWS V14.01,2013-05-07 05:47:00,
2013-05-07 01:48:00,51.7,51.2,30.07,ENE,69,16.0,16.0,98,0.00,,,0.00,VWS V14.01,2013-05-07 05:48:00,
2013-05-07 01:49:00,51.7,51.2,30.07,ENE,64,14.0,16.0,98,0.00,,,0.00,VWS V14.01,2013-05-07 05:49:00,
2013-05-07 01:50:00,51.7,51.2,30.07,ENE,67,9.0,15.0,98,0.00,,,0.00,VWS V14.01,2013-05-07 05:50:00,
2013-05-07 01:51:00,51.7,51.2,30.07,ENE,66,11.0,15.0,98,0.00,,OVC002,0.00,VWS V14.01,2013-05-07 05:51:00,
2013-05-07 01:52:00,51.7,51.2,30.07,ENE,65,16.0,18.0,98,0.00,,,0.00,VWS V14.01,2013-05-07 05:52:00,
2013-05-07 01:53:00,51.7,51.2,30.07,ENE,66,15.0,16.0,98,0.00,,,0.00,VWS V14.01,2013-05-07 05:53:00,
2013-05-07 01:54:00,51.7,51.2,30.07,ENE,67,11.0,15.0,98,0.00,,,0.00,VWS V14.01,2013-05-07 05:54:00,
2013-05-07 01:55:00,51.7,51.2,30.07,ENE,61,15.0,15.0,98,0.00,,,0.00,VWS V14.01,2013-05-07 05:55:00,
2013-05-07 01:56:00,51.7,51.2,30.07,NE,55,13.0,15.0,98,0.00,,OVC002,0.00,VWS V14.01,2013-05-07 05:56:00,
2013-05-07 01:57:00,51.7,51.2,30.06,ENE,65,15.0,17.0,98,0.00,,,0.00,VWS V14.01,2013-05-07 05:57:00,
2013-05-07 01:58:00,51.7,51.2,30.06,ENE,63,11.0,15.0,98,0.00,,,0.00,VWS V14.01,2013-05-07 05:58:00,
2013-05-07 01:59:00,51.8,51.3,30.06,ENE,71,15.0,15.0,98,0.00,,,0.00,VWS V14.01,2013-05-07 05:59:00,
2013-05-07 02:00:00,51.7,51.2,30.06,ENE,63,14.0,14.0,98,0.00,,,0.00,VWS V14.01,2013-05-07 06:00:00,
2013-05-07 02:01:00,51.8,51.3,30.06,ENE,74,13.0,14.0,98,0.00,,OVC002,0.00,VWS V14.01,2013-05-07 06:01:00,
2013-05-07 02:02:00,51.8,51.3,30.06,ENE,65,13.0,16.0,98,0.00,,,0.00,VWS V14.01,2013-05-07 06:02:00,
2013-05-07 02:03:00,51.8,51.3,30.06,ENE,61,14.0,17.0,98,0.00,,,0.00,VWS V14.01,2013-05-07 06:03:00,
2013-05-07 02:04:00,51.8,51.3,30.06,ENE,63,17.0,17.0,98,0.00,,,0.00,VWS V14.01,2013-05-07 06:04:00,
2013-05-07 02:05:00,51.7,51.2,30.06,ENE,62,14.0,17.0,98,0.00,,,0.00,VWS V14.01,2013-05-07 06:05:00,
2013-05-07 02:06:00,51.8,51.3,30.06,NE,55,14.0,17.0,98,0.00,,OVC002,0.00,VWS V14.01,2013-05-07 06:06:00,
2013-05-07 02:07:00,51.7,51.2,30.06,ENE,57,11.0,15.0,98,0.00,,,0.00,VWS V14.01,2013-05-07 06:07:00,
2013-05-07 02:08:00,51.8,51.3,30.06,ENE,65,15.0,15.0,98,0.00,,,0.00,VWS V14.01,2013-05-07 06:08:00,
2013-05-07 02:09:00,51.8,51.3,30.06,ENE,58,15.0,15.0,98,0.00,,,0.00,VWS V14.01,2013-05-07 06:09:00,
2013-05-07 02:10:00,51.8,51.3,30.06,ENE,60,13.0,17.0,98,0.00,,,0.00,VWS V14.01,2013-05-07 06:10:00,
2013-05-07 02:11:00,51.8,51.3,30.06,ENE,65,15.0,17.0,98,0.00,,OVC002,0.00,VWS V14.01,2013-05-07 06:11:00,
2013-05-07 02:12:00,51.8,51.3,30.06,ENE,64,13.0,15.0,98,0.00,,,0.00,VWS V14.01,2013-05-07 06:12:00,
2013-05-07 02:13:00,51.8,51.3,30.06,ENE,59,15.0,16.0,98,0.00,,,0.00,VWS V14.01,2013-05-07 06:13:00,
2013-05-07 02:14:00,51.8,51.3,30.06,ENE,78,12.0,15.0,98,0.00,,,0.00,VWS V14.01,2013-05-07 06:14:00,
2013-05-07 02:15:00,51.9,51.3,30.06,ENE,63,13.0,15.0,98,0.00,,,0.00,VWS V14.01,2013-05-07 06:15:00,
2013-05-07 02:16:00,51.8,51.3,30.06,ENE,66,14.0,15.0,98,0.00,,OVC002,0.00,VWS V14.01,2013-05-07 06:16:00,
2013-05-07 02:17:00,51.9,51.3,30.06,ENE,61,12.0,14.0,98,0.00,,,0.00,VWS V14.01,2013-05-07 06:17:00,
2013-05-07 02:18:00,51.9,51.3,30.06,ENE,67,14.0,15.0,98,0.00,,,0.00,VWS V14.01,2013-05-07 06:18:00,
2013-05-07 02:19:00,51.9,51.3,30.06,ENE,58,14.0,15.0,98,0.00,,,0.00,VWS V14.01,2013-05-07 06:19:00,
2013-05-07 02:20:00,51.9,51.3,30.06,ENE,71,13.0,14.0,98,0.00,,,0.00,VWS V14.01,2013-05-07 06:20:00,
2013-05-07 02:21:00,51.9,51.4,30.06,ENE,61,13.0,14.0,98,0.00,,OVC002,0.00,VWS V14.01,2013-05-07 06:21:00,
2013-05-07 02:22:00,51.9,51.3,30.06,ENE,67,13.0,14.0,98,0.00,,,0.00,VWS V14.01,2013-05-07 06:22:00,
2013-05-07 02:23:00,51.9,51.3,30.06,ENE,57,16.0,16.0,98,0.00,,,0.00,VWS V14.01,2013-05-07 06:23:00,
2013-05-07 02:24:00,51.9,51.3,30.06,ENE,59,12.0,17.0,98,0.00,,,0.00,VWS V14.01,2013-05-07 06:24:00,
2013-05-07 02:25:00,51.9,51.3,30.05,NE,56,13.0,15.0,98,0.00,,,0.00,VWS V14.01,2013-05-07 06:25:00,
2013-05-07 02:26:00,51.9,51.4,30.06,ENE,61,13.0,15.0,98,0.00,,OVC002,0.00,VWS V14.01,2013-05-07 06:26:00,
2013-05-07 02:27:00,51.9,51.3,30.05,ENE,67,14.0,16.0,98,0.00,,,0.00,VWS V14.01,2013-05-07 06:27:00,
2013-05-07 02:28:00,51.9,51.3,30.05,ENE,63,15.0,15.0,98,0.00,,,0.00,VWS V14.01,2013-05-07 06:28:00,
2013-05-07 02:29:00,51.9,51.3,30.05,ENE,57,15.0,15.0,98,0.00,,,0.00,VWS V14.01,2013-05-07 06:29:00,
2013-05-07 02:30:00,51.9,51.3,30.05,East,80,13.0,16.0,98,0.00,,,0.00,VWS V14.01,2013-05-07 06:30:00,
2013-05-07 02:31:00,51.9,51.4,30.05,ENE,66,14.0,16.0,98,0.00,,OVC002,0.00,VWS V14.01,2013-05-07 06:31:00,
2013-05-07 02:32:00,52.0,51.5,30.05,ENE,69,16.0,18.0,98,0.00,,,0.00,VWS V14.01,2013-05-07 06:32:00,
2013-05-07 02:33:00,52.0,51.5,30.05,ENE,68,13.0,18.0,98,0.00,,,0.00,VWS V14.01,2013-05-07 06:33:00,
2013-05-07 02:34:00,52.0,51.5,30.05,ENE,69,13.0,17.0,98,0.00,,,0.00,VWS V14.01,2013-05-07 06:34:00,
2013-05-07 02:35:00,52.0,51.5,30.05,ENE,67,16.0,16.0,98,0.00,,,0.00,VWS V14.01,2013-05-07 06:35:00,
2013-05-07 02:36:00,52.0,51.5,30.05,NE,49,10.0,13.0,98,0.00,,OVC002,0.00,VWS V14.01,2013-05-07 06:36:00,
2013-05-07 02:37:00,52.0,51.5,30.05,ENE,58,15.0,17.0,98,0.00,,,0.00,VWS V14.01,2013-05-07 06:37:00,
2013-05-07 02:38:00,52.0,51.5,30.05,ENE,61,12.0,15.0,98,0.00,,,0.00,VWS V14.01,2013-05-07 06:38:00,
2013-05-07 02:39:00,52.1,51.6,30.05,ENE,57,13.0,15.0,98,0.00,,,0.00,VWS V14.01,2013-05-07 06:39:00,
2013-05-07 02:40:00,52.0,51.5,30.05,NE,53,12.0,16.0,98,0.00,,,0.00,VWS V14.01,2013-05-07 06:40:00,
2013-05-07 02:41:00,52.1,51.5,30.05,ENE,62,14.0,16.0,98,0.00,,OVC002,0.00,VWS V14.01,2013-05-07 06:41:00,
2013-05-07 02:42:00,52.1,51.6,30.05,ENE,62,18.0,18.0,98,0.00,,,0.00,VWS V14.01,2013-05-07 06:42:00,
2013-05-07 02:43:00,52.1,51.6,30.05,ENE,58,16.0,18.0,98,0.00,,,0.00,VWS V14.01,2013-05-07 06:43:00,
2013-05-07 02:44:00,52.1,51.6,30.05,ENE,60,13.0,16.0,98,0.00,,,0.00,VWS V14.01,2013-05-07 06:44:00,
2013-05-07 02:45:00,52.1,51.6,30.05,ENE,59,18.0,18.0,98,0.00,,,0.00,VWS V14.01,2013-05-07 06:45:00,
2013-05-07 02:46:00,52.1,51.5,30.05,NE,55,16.0,18.0,98,0.00,,OVC002,0.00,VWS V14.01,2013-05-07 06:46:00,
2013-05-07 02:47:00,52.1,51.6,30.05,ENE,69,11.0,14.0,98,0.00,,,0.00,VWS V14.01,2013-05-07 06:47:00,
2013-05-07 02:48:00,52.1,51.6,30.05,ENE,58,16.0,16.0,98,0.00,,,0.00,VWS V14.01,2013-05-07 06:48:00,
2013-05-07 02:50:00,52.2,51.7,30.05,ENE,59,16.0,16.0,98,0.00,,,0.00,VWS V14.01,2013-05-07 06:50:00,
2013-05-07 02:51:00,52.1,51.5,30.05,ENE,64,15.0,16.0,98,0.00,,OVC002,0.00,VWS V14.01,2013-05-07 06:51:00,
2013-05-07 02:52:00,52.2,51.7,30.05,ENE,65,15.0,17.0,98,0.00,,,0.00,VWS V14.01,2013-05-07 06:52:00,
2013-05-07 02:53:00,52.2,51.7,30.05,ENE,69,14.0,17.0,98,0.00,,,0.00,VWS V14.01,2013-05-07 06:53:00,
2013-05-07 02:54:00,52.2,51.7,30.05,ENE,58,13.0,15.0,98,0.00,,,0.00,VWS V14.01,2013-05-07 06:54:00,
2013-05-07 02:55:00,52.2,51.7,30.05,ENE,72,13.0,15.0,98,0.00,,,0.00,VWS V14.01,2013-05-07 06:55:00,
2013-05-07 02:56:00,52.2,51.7,30.05,ENE,57,14.0,15.0,98,0.00,,OVC002,0.00,VWS V14.01,2013-05-07 06:56:00,
2013-05-07 02:57:00,52.2,51.7,30.05,NE,54,12.0,16.0,98,0.00,,,0.00,VWS V14.01,2013-05-07 06:57:00,
2013-05-07 02:58:00,52.2,51.7,30.05,ENE,65,14.0,16.0,98,0.00,,,0.00,VWS V14.01,2013-05-07 06:58:00,
2013-05-07 02:59:00,52.2,51.7,30.05,ENE,65,15.0,17.0,98,0.00,,,0.00,VWS V14.01,2013-05-07 06:59:00,
2013-05-07 03:00:00,52.2,51.7,30.05,ENE,67,14.0,18.0,98,0.00,,,0.00,VWS V14.01,2013-05-07 07:00:00,
2013-05-07 03:01:00,52.2,51.7,30.05,ENE,70,16.0,18.0,98,0.00,,OVC002,0.00,VWS V14.01,2013-05-07 07:01:00,
2013-05-07 03:02:00,52.2,51.7,30.05,NE,55,16.0,18.0,98,0.00,,,0.00,VWS V14.01,2013-05-07 07:02:00,
2013-05-07 03:03:00,52.2,51.7,30.04,ENE,63,14.0,16.0,98,0.00,,,0.00,VWS V14.01,2013-05-07 07:03:00,
2013-05-07 03:04:00,52.2,51.7,30.05,ENE,64,16.0,18.0,98,0.00,,,0.00,VWS V14.01,2013-05-07 07:04:00,
2013-05-07 03:05:00,52.2,51.7,30.04,ENE,68,13.0,17.0,98,0.00,,,0.00,VWS V14.01,2013-05-07 07:05:00,
2013-05-07 03:06:00,52.2,51.7,30.04,ENE,61,16.0,17.0,98,0.00,,OVC002,0.00,VWS V14.01,2013-05-07 07:06:00,
2013-05-07 03:07:00,52.2,51.7,30.04,NE,56,14.0,17.0,98,0.00,,,0.00,VWS V14.01,2013-05-07 07:07:00,
2013-05-07 03:08:00,52.2,51.7,30.04,ENE,65,14.0,15.0,98,0.00,,,0.00,VWS V14.01,2013-05-07 07:08:00,
2013-05-07 03:09:00,52.3,51.8,30.04,ENE,59,14.0,15.0,98,0.00,,,0.00,VWS V14.01,2013-05-07 07:09:00,
2013-05-07 03:10:00,52.2,51.7,30.04,ENE,62,17.0,17.0,98,0.00,,,0.00,VWS V14.01,2013-05-07 07:10:00,
2013-05-07 03:11:00,52.2,51.7,30.04,ENE,70,13.0,16.0,98,0.00,,OVC002,0.00,VWS V14.01,2013-05-07 07:11:00,
2013-05-07 03:12:00,52.3,51.8,30.04,ENE,67,13.0,17.0,98,0.00,,,0.00,VWS V14.01,2013-05-07 07:12:00,
2013-05-07 03:13:00,52.3,51.8,30.04,ENE,62,14.0,14.0,98,0.00,,,0.00,VWS V14.01,2013-05-07 07:13:00,
2013-05-07 03:14:00,52.3,51.8,30.04,ENE,59,13.0,15.0,98,0.00,,,0.00,VWS V14.01,2013-05-07 07:14:00,
2013-05-07 03:15:00,52.3,51.8,30.04,NE,52,13.0,17.0,98,0.00,,,0.00,VWS V14.01,2013-05-07 07:15:00,
2013-05-07 03:16:00,52.3,51.8,30.04,ENE,63,13.0,17.0,98,0.00,,OVC002,0.00,VWS V14.01,2013-05-07 07:16:00,
2013-05-07 03:17:00,52.3,51.8,30.04,ENE,60,14.0,18.0,98,0.00,,,0.00,VWS V14.01,2013-05-07 07:17:00,
2013-05-07 03:18:00,52.3,51.8,30.04,ENE,61,17.0,17.0,98,0.00,,,0.00,VWS V14.01,2013-05-07 07:18:00,
2013-05-07 03:19:00,52.3,51.8,30.04,ENE,63,15.0,17.0,98,0.00,,,0.00,VWS V14.01,2013-05-07 07:19:00,
2013-05-07 03:20:00,52.3,51.8,30.04,ENE,57,17.0,20.0,98,0.00,,,0.00,VWS V14.01,2013-05-07 07:20:00,
2013-05-07 03:21:00,52.3,51.8,30.04,NE,55,20.0,20.0,98,0.00,,OVC002,0.00,VWS V14.01,2013-05-07 07:21:00,
2013-05-07 03:23:00,52.3,51.8,30.04,ENE,64,15.0,18.0,98,0.00,,,0.00,VWS V14.01,2013-05-07 07:23:00,
2013-05-07 03:24:00,52.3,51.8,30.04,ENE,67,16.0,16.0,98,0.00,,,0.00,VWS V14.01,2013-05-07 07:24:00,
2013-05-07 03:25:00,52.3,51.8,30.04,ENE,59,19.0,19.0,98,0.00,,,0.00,VWS V14.01,2013-05-07 07:25:00,
2013-05-07 03:26:00,52.3,51.8,30.04,ENE,61,16.0,17.0,98,0.00,,OVC002,0.00,VWS V14.01,2013-05-07 07:26:00,
2013-05-07 03:27:00,52.3,51.8,30.04,ENE,67,17.0,17.0,98,0.00,,,0.00,VWS V14.01,2013-05-07 07:27:00,
2013-05-07 03:28:00,52.3,51.8,30.04,ENE,67,16.0,18.0,98,0.00,,,0.00,VWS V14.01,2013-05-07 07:28:00,
2013-05-07 03:29:00,52.3,51.8,30.04,ENE,57,14.0,16.0,98,0.00,,,0.00,VWS V14.01,2013-05-07 07:29:00,
2013-05-07 03:30:00,52.3,51.8,30.04,East,84,17.0,18.0,98,0.00,,,0.00,VWS V14.01,2013-05-07 07:30:00,
2013-05-07 03:31:00,52.3,51.8,30.04,ENE,71,17.0,18.0,98,0.00,,OVC002,0.00,VWS V14.01,2013-05-07 07:31:00,
2013-05-07 03:32:00,52.3,51.8,30.04,NE,55,13.0,18.0,98,0.00,,,0.00,VWS V14.01,2013-05-07 07:32:00,
2013-05-07 03:33:00,52.4,51.8,30.04,ENE,63,18.0,22.0,98,0.00,,,0.00,VWS V14.01,2013-05-07 07:33:00,
2013-05-07 03:34:00,52.3,51.8,30.04,ENE,57,18.0,22.0,98,0.00,,,0.00,VWS V14.01,2013-05-07 07:34:00,
2013-05-07 03:35:00,52.3,51.8,30.04,ENE,60,16.0,18.0,98,0.00,,,0.00,VWS V14.01,2013-05-07 07:35:00,
2013-05-07 03:36:00,52.3,51.8,30.04,ENE,57,14.0,18.0,98,0.00,,OVC002,0.00,VWS V14.01,2013-05-07 07:36:00,
2013-05-07 03:37:00,52.3,51.8,30.04,ENE,64,13.0,17.0,98,0.00,,,0.00,VWS V14.01,2013-05-07 07:37:00,
2013-05-07 03:38:00,52.4,51.8,30.03,ENE,65,15.0,17.0,98,0.00,,,0.00,VWS V14.01,2013-05-07 07:38:00,
2013-05-07 03:39:00,52.4,51.8,30.03,ENE,63,18.0,20.0,98,0.00,,,0.00,VWS V14.01,2013-05-07 07:39:00,
2013-05-07 03:40:00,52.4,51.8,30.04,ENE,58,18.0,18.0,98,0.00,,,0.00,VWS V14.01,2013-05-07 07:40:00,
2013-05-07 03:41:00,52.4,51.8,30.04,ENE,61,17.0,18.0,98,0.00,,OVC002,0.00,VWS V14.01,2013-05-07 07:41:00,
2013-05-07 03:42:00,52.4,51.8,30.04,ENE,59,12.0,17.0,98,0.00,,,0.00,VWS V14.01,2013-05-07 07:42:00,
2013-05-07 03:43:00,52.4,51.8,30.04,NE,53,15.0,17.0,98,0.00,,,0.00,VWS V14.01,2013-05-07 07:43:00,
2013-05-07 03:44:00,52.4,51.8,30.04,ENE,76,13.0,17.0,98,0.00,,,0.00,VWS V14.01,2013-05-07 07:44:00,
2013-05-07 03:45:00,52.4,51.8,30.04,ENE,58,12.0,15.0,98,0.00,,,0.00,VWS V14.01,2013-05-07 07:45:00,
2013-05-07 03:46:00,52.4,51.8,30.04,ENE,58,15.0,15.0,98,0.00,,OVC002,0.00,VWS V14.01,2013-05-07 07:46:00,
2013-05-07 03:47:00,52.5,52.0,30.03,ENE,59,16.0,16.0,98,0.00,,,0.00,VWS V14.01,2013-05-07 07:47:00,
2013-05-07 03:48:00,52.5,52.0,30.04,ENE,57,20.0,20.0,98,0.00,,,0.00,VWS V14.01,2013-05-07 07:48:00,
2013-05-07 03:49:00,52.5,52.0,30.04,ENE,67,17.0,20.0,98,0.00,,,0.00,VWS V14.01,2013-05-07 07:49:00,
2013-05-07 03:50:00,52.5,52.0,30.04,ENE,60,17.0,18.0,98,0.00,,,0.00,VWS V14.01,2013-05-07 07:50:00,
2013-05-07 03:51:00,52.5,52.0,30.04,ENE,68,12.0,17.0,98,0.00,,OVC003,0.00,VWS V14.01,2013-05-07 07:51:00,
2013-05-07 03:52:00,52.6,52.0,30.03,ENE,65,17.0,18.0,98,0.00,,,0.00,VWS V14.01,2013-05-07 07:52:00,
2013-05-07 03:53:00,52.6,52.0,30.03,ENE,71,15.0,18.0,98,0.00,,,0.00,VWS V14.01,2013-05-07 07:53:00,
2013-05-07 03:54:00,52.6,52.0,30.03,NE,47,13.0,16.0,98,0.00,,,0.00,VWS V14.01,2013-05-07 07:54:00,
2013-05-07 03:55:00,52.6,52.0,30.03,NE,52,16.0,17.0,98,0.00,,,0.00,VWS V14.01,2013-05-07 07:55:00,
2013-05-07 03:56:00,52.6,52.0,30.03,ENE,65,16.0,17.0,98,0.00,,OVC003,0.00,VWS V14.01,2013-05-07 07:56:00,
2013-05-07 03:57:00,52.6,52.0,30.04,ENE,70,13.0,17.0,98,0.00,,,0.00,VWS V14.01,2013-05-07 07:57:00,
2013-05-07 03:58:00,52.6,52.0,30.04,East,80,13.0,16.0,98,0.00,,,0.00,VWS V14.01,2013-05-07 07:58:00,
2013-05-07 03:59:00,52.7,52.2,30.04,ENE,69,16.0,16.0,98,0.00,,,0.00,VWS V14.01,2013-05-07 07:59:00,
2013-05-07 04:00:00,52.7,52.2,30.04,NE,55,15.0,17.0,98,0.00,,,0.00,VWS V14.01,2013-05-07 08:00:00,
2013-05-07 04:01:00,52.7,52.2,30.04,NE,49,14.0,17.0,98,0.00,,OVC003,0.00,VWS V14.01,2013-05-07 08:01:00,
2013-05-07 04:02:00,52.7,52.2,30.04,ENE,69,13.0,17.0,98,0.00,,,0.00,VWS V14.01,2013-05-07 08:02:00,
2013-05-07 04:04:00,52.7,52.2,30.04,ENE,70,14.0,14.0,98,0.00,,,0.00,VWS V14.01,2013-05-07 08:04:00,
2013-05-07 04:05:00,52.8,52.2,30.04,ENE,73,14.0,16.0,98,0.00,,,0.00,VWS V14.01,2013-05-07 08:05:00,
2013-05-07 04:06:00,52.7,52.2,30.04,ENE,70,14.0,14.0,98,0.00,,OVC003,0.00,VWS V14.01,2013-05-07 08:06:00,
2013-05-07 04:07:00,52.8,52.2,30.04,ENE,67,17.0,17.0,98,0.00,,,0.00,VWS V14.01,2013-05-07 08:07:00,
2013-05-07 04:08:00,52.8,52.2,30.04,ENE,65,16.0,18.0,98,0.00,,,0.00,VWS V14.01,2013-05-07 08:08:00,
2013-05-07 04:09:00,52.8,52.2,30.04,ENE,67,14.0,19.0,98,0.00,,,0.00,VWS V14.01,2013-05-07 08:09:00,
2013-05-07 04:10:00,52.8,52.2,30.04,ENE,64,14.0,16.0,98,0.00,,,0.00,VWS V14.01,2013-05-07 08:10:00,
2013-05-07 04:11:00,52.8,52.2,30.04,ENE,62,15.0,16.0,98,0.00,,OVC002,0.00,VWS V14.01,2013-05-07 08:11:00,
2013-05-07 04:12:00,52.8,52.2,30.04,ENE,65,15.0,17.0,98,0.00,,,0.00,VWS V14.01,2013-05-07 08:12:00,
2013-05-07 04:13:00,52.8,52.2,30.04,ENE,69,18.0,18.0,98,0.00,,,0.00,VWS V14.01,2013-05-07 08:13:00,
2013-05-07 04:14:00,52.8,52.2,30.04,ENE,67,22.0,22.0,98,0.00,,,0.00,VWS V14.01,2013-05-07 08:14:00,
2013-05-07 04:15:00,52.8,52.2,30.04,ENE,75,17.0,22.0,98,0.00,,,0.00,VWS V14.01,2013-05-07 08:15:00,
2013-05-07 04:16:00,52.8,52.2,30.04,ENE,63,16.0,22.0,98,0.00,,OVC002,0.00,VWS V14.01,2013-05-07 08:16:00,
2013-05-07 04:17:00,52.8,52.2,30.04,ENE,65,17.0,18.0,98,0.00,,,0.00,VWS V14.01,2013-05-07 08:17:00,
2013-05-07 04:18:00,52.8,52.2,30.04,ENE,64,19.0,19.0,98,0.00,,,0.00,VWS V14.01,2013-05-07 08:18:00,
2013-05-07 04:19:00,52.8,52.2,30.04,ENE,63,12.0,19.0,98,0.00,,,0.00,VWS V14.01,2013-05-07 08:19:00,
2013-05-07 04:20:00,52.8,52.2,30.04,ENE,76,12.0,16.0,98,0.00,,,0.00,VWS V14.01,2013-05-07 08:20:00,
2013-05-07 04:21:00,52.8,52.2,30.04,ENE,71,14.0,15.0,98,0.00,,OVC002,0.00,VWS V14.01,2013-05-07 08:21:00,
2013-05-07 04:22:00,52.8,52.2,30.04,ENE,64,17.0,17.0,98,0.00,,,0.00,VWS V14.01,2013-05-07 08:22:00,
2013-05-07 04:23:00,52.8,52.2,30.04,ENE,65,14.0,17.0,98,0.00,,,0.00,VWS V14.01,2013-05-07 08:23:00,
2013-05-07 04:24:00,52.8,52.2,30.04,ENE,74,15.0,17.0,98,0.00,,,0.00,VWS V14.01,2013-05-07 08:24:00,
2013-05-07 04:25:00,52.8,52.2,30.04,ENE,75,14.0,18.0,98,0.00,,,0.00,VWS V14.01,2013-05-07 08:25:00,
2013-05-07 04:26:00,52.8,52.2,30.04,NE,55,12.0,18.0,98,0.00,,OVC002,0.00,VWS V14.01,2013-05-07 08:26:00,
2013-05-07 04:27:00,52.8,52.2,30.04,ENE,71,16.0,16.0,98,0.00,,,0.00,VWS V14.01,2013-05-07 08:27:00,
2013-05-07 04:28:00,52.8,52.2,30.04,ENE,68,14.0,19.0,98,0.00,,,0.00,VWS V14.01,2013-05-07 08:28:00,
2013-05-07 04:29:00,52.8,52.2,30.04,ENE,74,13.0,18.0,98,0.00,,,0.00,VWS V14.01,2013-05-07 08:29:00,
2013-05-07 04:30:00,52.8,52.2,30.03,ENE,63,17.0,17.0,98,0.00,,,0.00,VWS V14.01,2013-05-07 08:30:00,
2013-05-07 04:31:00,52.8,52.2,30.03,ENE,66,13.0,15.0,98,0.00,,OVC002,0.00,VWS V14.01,2013-05-07 08:31:00,
2013-05-07 04:32:00,52.8,52.2,30.03,ENE,67,16.0,16.0,98,0.00,,,0.00,VWS V14.01,2013-05-07 08:32:00,
2013-05-07 04:33:00,52.8,52.2,30.03,ENE,57,17.0,17.0,98,0.00,,,0.00,VWS V14.01,2013-05-07 08:33:00,
2013-05-07 04:34:00,52.8,52.2,30.04,ENE,69,17.0,18.0,98,0.00,,,0.00,VWS V14.01,2013-05-07 08:34:00,
2013-05-07 04:35:00,52.8,52.2,30.04,ENE,76,16.0,17.0,98,0.00,,,0.00,VWS V14.01,2013-05-07 08:35:00,
2013-05-07 04:36:00,52.8,52.2,30.04,ENE,67,13.0,17.0,98,0.00,,OVC002,0.00,VWS V14.01,2013-05-07 08:36:00,
2013-05-07 04:37:00,52.8,52.2,30.04,ENE,72,14.0,17.0,98,0.00,,,0.00,VWS V14.01,2013-05-07 08:37:00,
2013-05-07 04:38:00,52.8,52.2,30.04,ENE,66,16.0,19.0,98,0.00,,,0.00,VWS V14.01,2013-05-07 08:38:00,
2013-05-07 04:39:00,52.8,52.2,30.04,ENE,67,16.0,19.0,98,0.00,,,0.00,VWS V14.01,2013-05-07 08:39:00,
2013-05-07 04:40:00,52.8,52.2,30.04,ENE,65,15.0,18.0,98,0.00,,,0.00,VWS V14.01,2013-05-07 08:40:00,
2013-05-07 04:41:00,52.8,52.2,30.04,ENE,62,17.0,18.0,98,0.00,,OVC002,0.00,VWS V14.01,2013-05-07 08:41:00,
2013-05-07 04:42:00,52.7,52.2,30.04,ENE,67,17.0,21.0,98,0.00,,,0.00,VWS V14.01,2013-05-07 08:42:00,
2013-05-07 04:43:00,52.7,52.2,30.04,ENE,65,18.0,18.0,98,0.00,,,0.00,VWS V14.01,2013-05-07 08:43:00,
2013-05-07 04:44:00,52.7,52.2,30.03,ENE,71,18.0,18.0,98,0.00,,,0.00,VWS V14.01,2013-05-07 08:44:00,
2013-05-07 04:45:00,52.8,52.2,30.03,ENE,67,17.0,18.0,98,0.00,,,0.00,VWS V14.01,2013-05-07 08:45:00,
2013-05-07 04:46:00,52.7,52.2,30.03,ENE,73,17.0,18.0,98,0.00,,OVC002,0.00,VWS V14.01,2013-05-07 08:46:00,
2013-05-07 04:47:00,52.7,52.2,30.03,ENE,70,18.0,21.0,98,0.00,,,0.00,VWS V14.01,2013-05-07 08:47:00,
2013-05-07 04:48:00,52.8,52.2,30.03,ENE,68,15.0,18.0,98,0.00,,,0.00,VWS V14.01,2013-05-07 08:48:00,
2013-05-07 04:49:00,52.8,52.2,30.03,ENE,64,13.0,16.0,98,0.00,,,0.00,VWS V14.01,2013-05-07 08:49:00,
2013-05-07 04:50:00,52.8,52.2,30.03,ENE,68,16.0,16.0,98,0.00,,,0.00,VWS V14.01,2013-05-07 08:50:00,
2013-05-07 04:51:00,52.8,52.2,30.03,ENE,59,13.0,15.0,98,0.00,,OVC002,0.00,VWS V14.01,2013-05-07 08:51:00,
2013-05-07 04:52:00,52.7,52.2,30.03,ENE,63,18.0,21.0,98,0.00,,,0.00,VWS V14.01,2013-05-07 08:52:00,
2013-05-07 04:53:00,52.7,52.2,30.03,ENE,65,15.0,18.0,98,0.00,,,0.00,VWS V14.01,2013-05-07 08:53:00,
2013-05-07 04:54:00,52.7,52.2,30.03,ENE,76,15.0,17.0,98,0.00,,,0.00,VWS V14.01,2013-05-07 08:54:00,
2013-05-07 04:55:00,52.7,52.2,30.03,ENE,69,16.0,18.0,98,0.00,,,0.00,VWS V14.01,2013-05-07 08:55:00,
2013-05-07 04:56:00,52.7,52.2,30.03,ENE,78,17.0,17.0,98,0.00,,OVC002,0.00,VWS V14.01,2013-05-07 08:56:00,
2013-05-07 04:58:00,52.6,52.0,30.03,ENE,75,20.0,20.0,98,0.00,,,0.00,VWS V14.01,2013-05-07 08:58:00,
2013-05-07 04:59:00,52.7,52.2,30.03,ENE,71,16.0,20.0,98,0.00,,,0.00,VWS V14.01,2013-05-07 08:59:00,
2013-05-07 05:00:00,52.7,52.2,30.03,ENE,65,14.0,21.0,98,0.00,,,0.00,VWS V14.01,2013-05-07 09:00:00,
2013-05-07 05:01:00,52.6,52.0,30.03,ENE,65,16.0,18.0,98,0.00,,OVC002,0.00,VWS V14.01,2013-05-07 09:01:00,
2013-05-07 05:02:00,52.6,52.0,30.03,ENE,67,17.0,21.0,98,0.00,,,0.00,VWS V14.01,2013-05-07 09:02:00,
2013-05-07 05:03:00,52.6,52.0,30.03,ENE,63,15.0,18.0,98,0.00,,,0.00,VWS V14.01,2013-05-07 09:03:00,
2013-05-07 05:04:00,52.7,52.2,30.03,ENE,71,15.0,21.0,98,0.00,,,0.00,VWS V14.01,2013-05-07 09:04:00,
2013-05-07 05:05:00,52.6,52.0,30.03,ENE,68,15.0,18.0,98,0.00,,OVC002,0.00,VWS V14.01,2013-05-07 09:05:00,
2013-05-07 05:06:00,52.7,52.2,30.03,ENE,66,16.0,18.0,98,0.00,,,0.00,VWS V14.01,2013-05-07 09:06:00,
2013-05-07 05:07:00,52.7,52.2,30.03,ENE,62,15.0,19.0,98,0.00,,,0.00,VWS V14.01,2013-05-07 09:07:00,
2013-05-07 05:08:00,52.7,52.2,30.03,ENE,63,13.0,17.0,98,0.00,,,0.00,VWS V14.01,2013-05-07 09:08:00,
2013-05-07 05:09:00,52.8,52.2,30.03,ENE,67,15.0,16.0,98,0.00,,,0.00,VWS V14.01,2013-05-07 09:09:00,
2013-05-07 05:10:00,52.7,52.2,30.03,ENE,69,17.0,18.0,98,0.00,,OVC002,0.00,VWS V14.01,2013-05-07 09:10:00,
2013-05-07 05:11:00,52.8,52.2,30.03,ENE,71,16.0,19.0,98,0.00,,,0.00,VWS V14.01,2013-05-07 09:11:00,
2013-05-07 05:12:00,52.7,52.2,30.03,ENE,74,17.0,19.0,98,0.00,,,0.00,VWS V14.01,2013-05-07 09:12:00,
2013-05-07 05:13:00,52.7,52.2,30.03,ENE,59,15.0,20.0,98,0.00,,,0.00,VWS V14.01,2013-05-07 09:13:00,
2013-05-07 05:14:00,52.7,52.2,30.03,ENE,74,16.0,20.0,98,0.00,,,0.00,VWS V14.01,2013-05-07 09:14:00,
2013-05-07 05:15:00,52.7,52.2,30.03,ENE,67,18.0,20.0,98,0.00,,OVC002,0.00,VWS V14.01,2013-05-07 09:15:00,
2013-05-07 05:16:00,52.6,52.0,30.03,ENE,66,18.0,19.0,98,0.00,,,0.00,VWS V14.01,2013-05-07 09:16:00,
2013-05-07 05:17:00,52.6,52.0,30.03,ENE,70,16.0,19.0,98,0.00,,,0.00,VWS V14.01,2013-05-07 09:17:00,
2013-05-07 05:20:00,52.6,52.0,30.03,ENE,74,14.0,18.0,98,0.00,,OVC002,0.00,VWS V14.01,2013-05-07 09:20:00,
2013-05-07 05:21:00,52.7,52.2,30.03,ENE,65,16.0,21.0,98,0.00,,,0.00,VWS V14.01,2013-05-07 09:21:00,
2013-05-07 05:22:00,52.7,52.2,30.03,ENE,60,17.0,17.0,98,0.00,,,0.00,VWS V14.01,2013-05-07 09:22:00,
2013-05-07 05:23:00,52.7,52.2,30.03,ENE,69,19.0,21.0,98,0.00,,,0.00,VWS V14.01,2013-05-07 09:23:00,
2013-05-07 05:24:00,52.7,52.2,30.03,ENE,78,18.0,22.0,98,0.00,,,0.00,VWS V14.01,2013-05-07 09:24:00,
2013-05-07 05:25:00,52.7,52.2,30.03,ENE,63,23.0,23.0,98,0.00,,OVC002,0.00,VWS V14.01,2013-05-07 09:25:00,
2013-05-07 05:26:00,52.6,52.0,30.03,ENE,59,18.0,21.0,98,0.00,,,0.00,VWS V14.01,2013-05-07 09:26:00,
2013-05-07 05:27:00,52.6,52.0,30.03,ENE,60,17.0,18.0,98,0.00,,,0.00,VWS V14.01,2013-05-07 09:27:00,
2013-05-07 05:28:00,52.6,52.0,30.03,NE,50,14.0,18.0,98,0.00,,,0.00,VWS V14.01,2013-05-07 09:28:00,
2013-05-07 05:29:00,52.6,52.0,30.04,ENE,71,15.0,18.0,98,0.00,,,0.00,VWS V14.01,2013-05-07 09:29:00,
2013-05-07 05:30:00,52.7,52.2,30.04,ENE,69,18.0,18.0,98,0.00,,OVC002,0.00,VWS V14.01,2013-05-07 09:30:00,
2013-05-07 05:31:00,52.7,52.2,30.03,ENE,59,13.0,17.0,98,0.00,,,0.00,VWS V14.01,2013-05-07 09:31:00,
2013-05-07 05:32:00,52.7,52.2,30.04,East,82,17.0,19.0,98,0.00,,,0.00,VWS V14.01,2013-05-07 09:32:00,
2013-05-07 05:33:00,52.7,52.2,30.04,ENE,57,18.0,19.0,98,0.00,,,0.00,VWS V14.01,2013-05-07 09:33:00,
2013-05-07 05:34:00,52.7,52.2,30.04,ENE,61,19.0,19.0,98,0.00,,,0.00,VWS V14.01,2013-05-07 09:34:00,
2013-05-07 05:35:00,52.7,52.2,30.04,ENE,68,17.0,19.0,98,0.00,,OVC002,0.00,VWS V14.01,2013-05-07 09:35:00,
2013-05-07 05:36:00,52.7,52.2,30.04,ENE,67,19.0,21.0,98,0.00,,,0.00,VWS V14.01,2013-05-07 09:36:00,
2013-05-07 05:37:00,52.6,52.0,30.04,ENE,67,16.0,19.0,98,0.00,,,0.00,VWS V14.01,2013-05-07 09:37:00,
2013-05-07 05:38:00,52.7,52.2,30.04,ENE,65,17.0,18.0,98,0.00,,,0.00,VWS V14.01,2013-05-07 09:38:00,
2013-05-07 05:39:00,52.7,52.2,30.03,ENE,67,16.0,18.0,98,0.00,,,0.00,VWS V14.01,2013-05-07 09:39:00,
2013-05-07 05:40:00,52.7,52.2,30.03,ENE,63,15.0,17.0,98,0.00,,OVC002,0.00,VWS V14.01,2013-05-07 09:40:00,
2013-05-07 05:41:00,52.7,52.2,30.03,ENE,65,16.0,17.0,98,0.00,,,0.00,VWS V14.01,2013-05-07 09:41:00,
2013-05-07 05:42:00,52.7,52.2,30.03,ENE,63,16.0,21.0,98,0.00,,,0.00,VWS V14.01,2013-05-07 09:42:00,
2013-05-07 05:43:00,52.7,52.2,30.03,ENE,69,18.0,21.0,98,0.00,,,0.00,VWS V14.01,2013-05-07 09:43:00,
2013-05-07 05:44:00,52.7,52.2,30.03,ENE,65,19.0,19.0,98,0.00,,,0.00,VWS V14.01,2013-05-07 09:44:00,
2013-05-07 05:45:00,52.7,52.2,30.03,ENE,65,18.0,19.0,98,0.00,,OVC002,0.00,VWS V14.01,2013-05-07 09:45:00,
2013-05-07 05:46:00,52.7,52.2,30.03,ENE,63,16.0,19.0,98,0.00,,,0.00,VWS V14.01,2013-05-07 09:46:00,
2013-05-07 05:47:00,52.7,52.2,30.03,ENE,67,19.0,19.0,98,0.00,,,0.00,VWS V14.01,2013-05-07 09:47:00,
2013-05-07 05:48:00,52.7,52.2,30.03,NE,45,17.0,22.0,98,0.00,,,0.00,VWS V14.01,2013-05-07 09:48:00,
2013-05-07 05:49:00,52.6,52.0,30.03,ENE,66,21.0,21.0,98,0.00,,,0.00,VWS V14.01,2013-05-07 09:49:00,
2013-05-07 05:50:00,52.6,52.0,30.03,ENE,71,16.0,21.0,98,0.00,,OVC002,0.00,VWS V14.01,2013-05-07 09:50:00,
2013-05-07 05:51:00,52.6,52.0,30.03,East,80,15.0,23.0,98,0.00,,,0.00,VWS V14.01,2013-05-07 09:51:00,
2013-05-07 05:52:00,52.6,52.0,30.03,ENE,67,18.0,21.0,98,0.00,,,0.00,VWS V14.01,2013-05-07 09:52:00,
2013-05-07 05:53:00,52.6,52.0,30.03,ENE,63,14.0,18.0,98,0.00,,,0.00,VWS V14.01,2013-05-07 09:53:00,
2013-05-07 05:54:00,52.7,52.2,30.03,ENE,63,15.0,16.0,98,0.00,,,0.00,VWS V14.01,2013-05-07 09:54:00,
2013-05-07 05:55:00,52.7,52.2,30.03,ENE,57,15.0,18.0,98,0.00,,OVC002,0.00,VWS V14.01,2013-05-07 09:55:00,
2013-05-07 05:56:00,52.7,52.2,30.03,ENE,73,15.0,19.0,98,0.00,,,0.00,VWS V14.01,2013-05-07 09:56:00,
2013-05-07 05:57:00,52.7,52.2,30.04,NE,49,14.0,18.0,98,0.00,,,0.00,VWS V14.01,2013-05-07 09:57:00,
2013-05-07 05:58:00,52.7,52.2,30.04,ENE,65,18.0,19.0,98,0.00,,,0.00,VWS V14.01,2013-05-07 09:58:00,
2013-05-07 05:59:00,52.7,52.2,30.03,ENE,61,17.0,19.0,98,0.00,,,0.00,VWS V14.01,2013-05-07 09:59:00,
2013-05-07 06:00:00,52.7,52.2,30.03,NE,55,16.0,18.0,98,0.00,,OVC002,0.00,VWS V14.01,2013-05-07 10:00:00,
2013-05-07 06:01:00,52.7,52.2,30.03,NE,54,14.0,21.0,98,0.00,,,0.00,VWS V14.01,2013-05-07 10:01:00,
2013-05-07 06:02:00,52.7,52.2,30.03,ENE,69,18.0,18.0,98,0.00,,,0.00,VWS V14.01,2013-05-07 10:02:00,
2013-05-07 06:03:00,52.7,52.2,30.03,ENE,72,17.0,18.0,98,0.00,,,0.00,VWS V14.01,2013-05-07 10:03:00,
2013-05-07 06:04:00,52.6,52.0,30.03,ENE,58,17.0,18.0,98,0.00,,,0.00,VWS V14.01,2013-05-07 10:04:00,
2013-05-07 06:05:00,52.6,52.0,30.04,ENE,61,16.0,17.0,98,0.00,,OVC002,0.00,VWS V14.01,2013-05-07 10:05:00,
2013-05-07 06:06:00,52.7,52.2,30.03,ENE,61,16.0,16.0,98,0.00,,,0.00,VWS V14.01,2013-05-07 10:06:00,
2013-05-07 06:07:00,52.7,52.2,30.03,ENE,68,18.0,20.0,98,0.00,,,0.00,VWS V14.01,2013-05-07 10:07:00,
2013-05-07 06:08:00,52.7,52.2,30.03,ENE,64,18.0,21.0,98,0.00,,,0.00,VWS V14.01,2013-05-07 10:08:00,
2013-05-07 06:09:00,52.7,52.2,30.03,ENE,59,19.0,19.0,98,0.00,,,0.00,VWS V14.01,2013-05-07 10:09:00,
2013-05-07 06:10:00,52.7,52.2,30.03,ENE,62,18.0,19.0,98,0.00,,OVC002,0.00,VWS V14.01,2013-05-07 10:10:00,
2013-05-07 06:11:00,52.6,52.0,30.03,ENE,59,15.0,19.0,98,0.00,,,0.00,VWS V14.01,2013-05-07 10:11:00,
2013-05-07 06:12:00,52.6,52.0,30.03,ENE,63,17.0,19.0,98,0.00,,,0.00,VWS V14.01,2013-05-07 10:12:00,
2013-05-07 06:13:00,52.6,52.0,30.03,ENE,59,18.0,18.0,98,0.00,,,0.00,VWS V14.01,2013-05-07 10:13:00,
2013-05-07 06:14:00,52.6,52.0,30.03,ENE,74,21.0,21.0,98,0.00,,,0.00,VWS V14.01,2013-05-07 10:14:00,
2013-05-07 06:15:00,52.6,52.0,30.03,NE,51,15.0,21.0,98,0.00,,OVC002,0.00,VWS V14.01,2013-05-07 10:15:00,
2013-05-07 06:16:00,52.6,52.0,30.03,ENE,59,19.0,22.0,98,0.00,,,0.00,VWS V14.01,2013-05-07 10:16:00,
2013-05-07 06:17:00,52.6,52.0,30.03,ENE,67,21.0,22.0,98,0.00,,,0.00,VWS V14.01,2013-05-07 10:17:00,
2013-05-07 06:18:00,52.6,52.0,30.03,ENE,61,17.0,21.0,98,0.00,,,0.00,VWS V14.01,2013-05-07 10:18:00,
2013-05-07 06:19:00,52.6,52.0,30.03,ENE,67,18.0,18.0,98,0.00,,,0.00,VWS V14.01,2013-05-07 10:19:00,
2013-05-07 06:20:00,52.6,52.0,30.04,ENE,65,19.0,22.0,98,0.00,,OVC002,0.00,VWS V14.01,2013-05-07 10:20:00,
2013-05-07 06:21:00,52.6,52.0,30.04,ENE,63,15.0,21.0,98,0.00,,,0.00,VWS V14.01,2013-05-07 10:21:00,
2013-05-07 06:22:00,52.5,52.0,30.04,ENE,61,19.0,22.0,98,0.00,,,0.00,VWS V14.01,2013-05-07 10:22:00,
2013-05-07 06:23:00,52.6,52.0,30.04,ENE,65,22.0,23.0,98,0.00,,,0.00,VWS V14.01,2013-05-07 10:23:00,
2013-05-07 06:24:00,52.5,52.0,30.04,ENE,59,15.0,22.0,98,0.00,,,0.00,VWS V14.01,2013-05-07 10:24:00,
2013-05-07 06:25:00,52.5,52.0,30.04,ENE,69,21.0,21.0,98,0.00,,OVC002,0.00,VWS V14.01,2013-05-07 10:25:00,
2013-05-07 06:26:00,52.5,52.0,30.04,ENE,61,18.0,22.0,98,0.00,,,0.00,VWS V14.01,2013-05-07 10:26:00,
2013-05-07 06:27:00,52.5,52.0,30.04,ENE,62,17.0,18.0,98,0.00,,,0.00,VWS V14.01,2013-05-07 10:27:00,
2013-05-07 06:28:00,52.5,52.0,30.04,ENE,77,14.0,19.0,98,0.00,,,0.00,VWS V14.01,2013-05-07 10:28:00,
2013-05-07 06:29:00,52.5,52.0,30.04,ENE,67,17.0,17.0,98,0.00,,,0.00,VWS V14.01,2013-05-07 10:29:00,
2013-05-07 06:30:00,52.5,52.0,30.05,ENE,76,14.0,17.0,98,0.00,,OVC002,0.00,VWS V14.01,2013-05-07 10:30:00,
2013-05-07 06:31:00,52.5,52.0,30.04,ENE,59,18.0,19.0,98,0.00,,,0.00,VWS V14.01,2013-05-07 10:31:00,
2013-05-07 06:32:00,52.6,52.0,30.05,ENE,65,19.0,19.0,98,0.00,,,0.00,VWS V14.01,2013-05-07 10:32:00,
2013-05-07 06:33:00,52.5,52.0,30.05,ENE,78,16.0,19.0,98,0.00,,,0.00,VWS V14.01,2013-05-07 10:33:00,
2013-05-07 06:34:00,52.6,52.0,30.05,ENE,65,12.0,18.0,98,0.00,,,0.00,VWS V14.01,2013-05-07 10:34:00,
2013-05-07 06:35:00,52.6,52.0,30.05,ENE,61,17.0,17.0,98,0.00,,OVC002,0.00,VWS V14.01,2013-05-07 10:35:00,
2013-05-07 06:36:00,52.6,52.0,30.05,ENE,63,13.0,17.0,98,0.00,,,0.00,VWS V14.01,2013-05-07 10:36:00,
2013-05-07 06:37:00,52.6,52.0,30.05,ENE,59,18.0,19.0,98,0.00,,,0.00,VWS V14.01,2013-05-07 10:37:00,
2013-05-07 06:38:00,52.6,52.0,30.05,ENE,69,14.0,18.0,98,0.00,,,0.00,VWS V14.01,2013-05-07 10:38:00,
2013-05-07 06:39:00,52.6,52.0,30.05,ENE,57,15.0,18.0,98,0.00,,,0.00,VWS V14.01,2013-05-07 10:39:00,
2013-05-07 06:40:00,52.7,52.2,30.05,ENE,60,13.0,16.0,98,0.00,,OVC002,0.00,VWS V14.01,2013-05-07 10:40:00,
2013-05-07 06:41:00,52.7,52.2,30.05,ENE,63,17.0,20.0,98,0.00,,,0.00,VWS V14.01,2013-05-07 10:41:00,
2013-05-07 06:42:00,52.7,52.2,30.05,ENE,64,15.0,18.0,98,0.00,,,0.00,VWS V14.01,2013-05-07 10:42:00,
2013-05-07 06:43:00,52.7,52.2,30.05,ENE,62,18.0,21.0,98,0.00,,,0.00,VWS V14.01,2013-05-07 10:43:00,
2013-05-07 06:44:00,52.7,52.2,30.05,ENE,63,22.0,22.0,98,0.00,,,0.00,VWS V14.01,2013-05-07 10:44:00,
2013-05-07 06:45:00,52.7,52.2,30.05,NE,56,18.0,22.0,98,0.00,,OVC002,0.00,VWS V14.01,2013-05-07 10:45:00,
2013-05-07 06:46:00,52.7,52.2,30.05,ENE,69,17.0,19.0,98,0.00,,,0.00,VWS V14.01,2013-05-07 10:46:00,
2013-05-07 06:47:00,52.8,52.2,30.05,ENE,76,18.0,18.0,98,0.00,,,0.00,VWS V14.01,2013-05-07 10:47:00,
2013-05-07 06:48:00,52.8,52.2,30.05,NE,56,14.0,18.0,98,0.00,,,0.00,VWS V14.01,2013-05-07 10:48:00,
2013-05-07 06:49:00,52.8,52.2,30.05,ENE,59,17.0,18.0,98,0.00,,,0.00,VWS V14.01,2013-05-07 10:49:00,
2013-05-07 06:50:00,52.8,52.2,30.05,ENE,66,17.0,18.0,98,0.00,,OVC002,0.00,VWS V14.01,2013-05-07 10:50:00,
2013-05-07 06:51:00,52.8,52.2,30.05,ENE,62,19.0,21.0,98,0.00,,,0.00,VWS V14.01,2013-05-07 10:51:00,
2013-05-07 06:52:00,52.9,52.3,30.05,ENE,64,19.0,19.0,98,0.00,,,0.00,VWS V14.01,2013-05-07 10:52:00,
2013-05-07 06:53:00,52.9,52.3,30.05,ENE,63,21.0,21.0,98,0.00,,,0.00,VWS V14.01,2013-05-07 10:53:00,
2013-05-07 06:54:00,52.9,52.3,30.05,ENE,65,16.0,21.0,98,0.00,,,0.00,VWS V14.01,2013-05-07 10:54:00,
2013-05-07 06:55:00,52.9,52.3,30.05,ENE,69,18.0,18.0,98,0.00,,OVC002,0.00,VWS V14.01,2013-05-07 10:55:00,
2013-05-07 06:56:00,52.9,52.3,30.05,ENE,62,15.0,17.0,98,0.00,,,0.00,VWS V14.01,2013-05-07 10:56:00,
2013-05-07 06:57:00,52.9,52.3,30.05,NE,56,15.0,18.0,98,0.00,,,0.00,VWS V14.01,2013-05-07 10:57:00,
2013-05-07 06:58:00,52.9,52.3,30.05,ENE,71,16.0,21.0,98,0.00,,,0.00,VWS V14.01,2013-05-07 10:58:00,
2013-05-07 06:59:00,53.0,52.5,30.05,ENE,63,14.0,18.0,98,0.00,,,0.00,VWS V14.01,2013-05-07 10:59:00,
2013-05-07 07:00:00,53.0,52.5,30.05,ENE,67,17.0,18.0,98,0.00,,OVC002,0.00,VWS V14.01,2013-05-07 11:00:00,
2013-05-07 07:01:00,53.0,52.7,30.05,ENE,70,15.0,17.0,99,0.00,,,0.00,VWS V14.01,2013-05-07 11:01:00,
2013-05-07 07:02:00,53.1,52.8,30.05,ENE,65,13.0,17.0,99,0.00,,,0.00,VWS V14.01,2013-05-07 11:02:00,
2013-05-07 07:03:00,53.1,52.8,30.05,ENE,61,18.0,18.0,99,0.00,,,0.00,VWS V14.01,2013-05-07 11:03:00,
2013-05-07 07:05:00,53.1,52.8,30.05,ENE,62,15.0,18.0,99,0.00,,OVC002,0.00,VWS V14.01,2013-05-07 11:05:00,
2013-05-07 07:06:00,53.2,52.7,30.05,ENE,63,13.0,17.0,98,0.00,,,0.00,VWS V14.01,2013-05-07 11:06:00,
2013-05-07 07:07:00,53.1,52.5,30.05,ENE,67,13.0,18.0,98,0.00,,,0.00,VWS V14.01,2013-05-07 11:07:00,
2013-05-07 07:08:00,53.2,52.7,30.05,ENE,65,21.0,21.0,98,0.00,,,0.00,VWS V14.01,2013-05-07 11:08:00,
2013-05-07 07:09:00,53.2,52.7,30.05,ENE,69,17.0,22.0,98,0.00,,,0.00,VWS V14.01,2013-05-07 11:09:00,
2013-05-07 07:10:00,53.1,52.5,30.05,ENE,69,14.0,17.0,98,0.00,,OVC002,0.00,VWS V14.01,2013-05-07 11:10:00,
2013-05-07 07:11:00,53.2,52.7,30.05,NE,55,16.0,20.0,98,0.00,,,0.00,VWS V14.01,2013-05-07 11:11:00,
2013-05-07 07:12:00,53.2,52.7,30.05,ENE,65,18.0,20.0,98,0.00,,,0.00,VWS V14.01,2013-05-07 11:12:00,
2013-05-07 07:13:00,53.2,52.7,30.05,ENE,59,15.0,18.0,98,0.00,,,0.00,VWS V14.01,2013-05-07 11:13:00,
2013-05-07 07:14:00,53.2,52.7,30.05,ENE,59,18.0,18.0,98,0.00,,,0.00,VWS V14.01,2013-05-07 11:14:00,
2013-05-07 07:15:00,53.2,52.7,30.05,ENE,69,17.0,18.0,98,0.00,,OVC002,0.00,VWS V14.01,2013-05-07 11:15:00,
2013-05-07 07:16:00,53.2,52.7,30.05,ENE,72,17.0,21.0,98,0.00,,,0.00,VWS V14.01,2013-05-07 11:16:00,
2013-05-07 07:17:00,53.2,52.7,30.04,ENE,74,20.0,21.0,98,0.00,,,0.00,VWS V14.01,2013-05-07 11:17:00,
2013-05-07 07:18:00,53.2,52.7,30.04,ENE,64,14.0,20.0,98,0.00,,,0.00,VWS V14.01,2013-05-07 11:18:00,
2013-05-07 07:19:00,53.3,52.8,30.05,ENE,63,18.0,19.0,98,0.00,,,0.00,VWS V14.01,2013-05-07 11:19:00,
2013-05-07 07:20:00,53.3,52.8,30.05,ENE,67,18.0,18.0,98,0.00,,OVC002,0.00,VWS V14.01,2013-05-07 11:20:00,
2013-05-07 07:21:00,53.3,52.8,30.05,ENE,63,16.0,22.0,98,0.00,,,0.00,VWS V14.01,2013-05-07 11:21:00,
2013-05-07 07:22:00,53.3,52.8,30.05,ENE,64,18.0,19.0,98,0.00,,,0.00,VWS V14.01,2013-05-07 11:22:00,
2013-05-07 07:23:00,53.3,52.8,30.05,ENE,63,17.0,21.0,98,0.00,,,0.00,VWS V14.01,2013-05-07 11:23:00,
2013-05-07 07:24:00,53.3,52.8,30.05,ENE,67,19.0,21.0,98,0.00,,,0.00,VWS V14.01,2013-05-07 11:24:00,
2013-05-07 07:25:00,53.3,52.8,30.05,ENE,65,18.0,22.0,98,0.00,,OVC002,0.00,VWS V14.01,2013-05-07 11:25:00,
2013-05-07 07:28:00,53.4,52.8,30.05,NE,54,17.0,21.0,98,0.00,,,0.00,VWS V14.01,2013-05-07 11:28:00,
2013-05-07 07:29:00,53.4,52.8,30.05,ENE,66,18.0,22.0,98,0.00,,,0.00,VWS V14.01,2013-05-07 11:29:00,
2013-05-07 07:30:00,53.4,52.8,30.05,ENE,60,18.0,18.0,98,0.00,,OVC002,0.00,VWS V14.01,2013-05-07 11:30:00,
2013-05-07 07:31:00,53.4,52.8,30.05,ENE,63,19.0,21.0,98,0.00,,,0.00,VWS V14.01,2013-05-07 11:31:00,
2013-05-07 07:32:00,53.4,52.8,30.05,NE,55,20.0,20.0,98,0.00,,,0.00,VWS V14.01,2013-05-07 11:32:00,
2013-05-07 07:33:00,53.4,52.8,30.05,ENE,64,17.0,20.0,98,0.00,,,0.00,VWS V14.01,2013-05-07 11:33:00,
2013-05-07 07:34:00,53.4,52.8,30.05,ENE,61,18.0,19.0,98,0.00,,,0.00,VWS V14.01,2013-05-07 11:34:00,
2013-05-07 07:35:00,53.4,52.8,30.05,ENE,66,21.0,21.0,98,0.00,,OVC002,0.00,VWS V14.01,2013-05-07 11:35:00,
2013-05-07 07:36:00,53.5,53.0,30.05,ENE,65,22.0,22.0,98,0.00,,,0.00,VWS V14.01,2013-05-07 11:36:00,
2013-05-07 07:37:00,53.5,53.0,30.05,East,80,22.0,22.0,98,0.00,,,0.00,VWS V14.01,2013-05-07 11:37:00,
2013-05-07 07:39:00,53.5,53.0,30.05,ENE,63,19.0,22.0,98,0.00,,,0.00,VWS V14.01,2013-05-07 11:39:00,
2013-05-07 07:40:00,53.5,53.0,30.05,ENE,61,19.0,22.0,98,0.00,,OVC002,0.00,VWS V14.01,2013-05-07 11:40:00,
2013-05-07 07:41:00,53.4,52.8,30.05,ENE,61,17.0,19.0,98,0.00,,,0.00,VWS V14.01,2013-05-07 11:41:00,
2013-05-07 07:42:00,53.4,52.8,30.05,ENE,63,19.0,19.0,98,0.00,,,0.00,VWS V14.01,2013-05-07 11:42:00,
2013-05-07 07:43:00,53.4,52.8,30.05,ENE,59,15.0,19.0,98,0.00,,,0.00,VWS V14.01,2013-05-07 11:43:00,
2013-05-07 07:44:00,53.5,53.0,30.05,ENE,59,17.0,21.0,98,0.00,,,0.00,VWS V14.01,2013-05-07 11:44:00,
2013-05-07 07:45:00,53.5,53.0,30.05,NE,56,15.0,19.0,98,0.00,,OVC002,0.00,VWS V14.01,2013-05-07 11:45:00,
2013-05-07 07:46:00,53.5,53.0,30.05,ENE,65,17.0,18.0,98,0.00,,,0.00,VWS V14.01,2013-05-07 11:46:00,
2013-05-07 07:47:00,53.6,53.0,30.05,ENE,69,18.0,22.0,98,0.00,,,0.00,VWS V14.01,2013-05-07 11:47:00,
2013-05-07 07:48:00,53.6,53.0,30.05,NE,54,17.0,18.0,98,0.00,,,0.00,VWS V14.01,2013-05-07 11:48:00,
2013-05-07 07:49:00,53.7,53.4,30.05,ENE,60,16.0,19.0,99,0.00,,,0.00,VWS V14.01,2013-05-07 11:49:00,
2013-05-07 07:50:00,53.7,53.4,30.05,ENE,59,18.0,21.0,99,0.00,,OVC002,0.00,VWS V14.01,2013-05-07 11:50:00,
2013-05-07 07:51:00,53.8,53.5,30.05,ENE,63,13.0,19.0,99,0.00,,,0.00,VWS V14.01,2013-05-07 11:51:00,
2013-05-07 07:52:00,53.9,53.6,30.05,ENE,62,16.0,19.0,99,0.00,,,0.00,VWS V14.01,2013-05-07 11:52:00,
2013-05-07 07:53:00,53.9,53.6,30.05,ENE,63,17.0,19.0,99,0.00,,,0.00,VWS V14.01,2013-05-07 11:53:00,
2013-05-07 07:54:00,53.9,53.6,30.05,ENE,61,21.0,21.0,99,0.00,,,0.00,VWS V14.01,2013-05-07 11:54:00,
2013-05-07 07:55:00,53.9,53.6,30.05,NE,55,20.0,21.0,99,0.00,,OVC003,0.00,VWS V14.01,2013-05-07 11:55:00,
2013-05-07 07:56:00,53.9,53.6,30.05,ENE,62,21.0,21.0,99,0.00,,,0.00,VWS V14.01,2013-05-07 11:56:00,
2013-05-07 07:57:00,53.9,53.6,30.05,ENE,65,17.0,22.0,99,0.00,,,0.00,VWS V14.01,2013-05-07 11:57:00,
2013-05-07 07:58:00,53.9,53.6,30.05,ENE,63,23.0,23.0,99,0.00,,,0.00,VWS V14.01,2013-05-07 11:58:00,
2013-05-07 07:59:00,53.8,53.5,30.05,ENE,57,16.0,23.0,99,0.00,,,0.00,VWS V14.01,2013-05-07 11:59:00,
2013-05-07 08:00:00,53.9,53.6,30.05,ENE,66,18.0,20.0,99,0.00,,OVC003,0.00,VWS V14.01,2013-05-07 12:00:00,
2013-05-07 08:01:00,53.9,53.6,30.05,ENE,61,18.0,21.0,99,0.00,,,0.00,VWS V14.01,2013-05-07 12:01:00,
2013-05-07 08:02:00,53.9,53.6,30.05,ENE,63,18.0,21.0,99,0.00,,,0.00,VWS V14.01,2013-05-07 12:02:00,
2013-05-07 08:03:00,54.0,53.5,30.05,ENE,63,17.0,22.0,98,0.00,,,0.00,VWS V14.01,2013-05-07 12:03:00,
2013-05-07 08:04:00,54.0,53.5,30.05,ENE,66,19.0,23.0,98,0.00,,,0.00,VWS V14.01,2013-05-07 12:04:00,
2013-05-07 08:05:00,54.0,53.5,30.05,ENE,59,17.0,19.0,98,0.00,,OVC003,0.00,VWS V14.01,2013-05-07 12:05:00,
2013-05-07 08:06:00,54.0,53.5,30.05,ENE,68,17.0,21.0,98,0.00,,,0.00,VWS V14.01,2013-05-07 12:06:00,
2013-05-07 08:07:00,54.0,53.5,30.05,East,83,18.0,22.0,98,0.00,,,0.00,VWS V14.01,2013-05-07 12:07:00,
2013-05-07 08:08:00,54.0,53.5,30.05,ENE,61,17.0,23.0,98,0.00,,,0.00,VWS V14.01,2013-05-07 12:08:00,
2013-05-07 08:09:00,54.0,53.5,30.05,ENE,74,20.0,20.0,98,0.00,,,0.00,VWS V14.01,2013-05-07 12:09:00,
2013-05-07 08:10:00,54.0,53.5,30.05,ENE,63,22.0,22.0,98,0.00,,OVC003,0.00,VWS V14.01,2013-05-07 12:10:00,
2013-05-07 08:11:00,54.0,53.5,30.05,ENE,67,15.0,18.0,98,0.00,,,0.00,VWS V14.01,2013-05-07 12:11:00,
2013-05-07 08:12:00,54.1,53.5,30.05,ENE,65,22.0,22.0,98,0.00,,,0.00,VWS V14.01,2013-05-07 12:12:00,
2013-05-07 08:13:00,54.0,53.5,30.05,ENE,63,21.0,24.0,98,0.00,,,0.00,VWS V14.01,2013-05-07 12:13:00,
2013-05-07 08:14:00,54.0,53.5,30.05,ENE,75,21.0,24.0,98,0.00,,,0.00,VWS V14.01,2013-05-07 12:14:00,
2013-05-07 08:15:00,54.0,53.5,30.05,ENE,67,18.0,21.0,98,0.00,,OVC002,0.00,VWS V14.01,2013-05-07 12:15:00,
2013-05-07 08:16:00,54.0,53.5,30.06,ENE,61,18.0,22.0,98,0.00,,,0.00,VWS V14.01,2013-05-07 12:16:00,
2013-05-07 08:17:00,54.0,53.5,30.06,ENE,68,18.0,21.0,98,0.00,,,0.00,VWS V14.01,2013-05-07 12:17:00,
2013-05-07 08:18:00,54.1,53.5,30.06,ENE,76,17.0,21.0,98,0.00,,,0.00,VWS V14.01,2013-05-07 12:18:00,
2013-05-07 08:19:00,54.1,53.5,30.06,East,83,14.0,17.0,98,0.00,,,0.00,VWS V14.01,2013-05-07 12:19:00,
2013-05-07 08:20:00,54.1,53.5,30.06,ENE,69,15.0,18.0,98,0.00,,OVC002,0.00,VWS V14.01,2013-05-07 12:20:00,
2013-05-07 08:21:00,54.2,53.7,30.06,ENE,75,15.0,21.0,98,0.00,,,0.00,VWS V14.01,2013-05-07 12:21:00,
2013-05-07 08:22:00,54.2,53.7,30.06,ENE,65,18.0,18.0,98,0.00,,,0.00,VWS V14.01,2013-05-07 12:22:00,
2013-05-07 08:23:00,54.3,54.0,30.06,ENE,69,19.0,24.0,99,0.00,,,0.00,VWS V14.01,2013-05-07 12:23:00,
2013-05-07 08:24:00,54.3,54.0,30.06,ENE,66,18.0,24.0,99,0.00,,,0.00,VWS V14.01,2013-05-07 12:24:00,
2013-05-07 08:25:00,54.3,54.0,30.06,ENE,71,22.0,22.0,99,0.00,,OVC002,0.00,VWS V14.01,2013-05-07 12:25:00,
2013-05-07 08:26:00,54.3,54.0,30.06,ENE,71,18.0,21.0,99,0.00,,,0.00,VWS V14.01,2013-05-07 12:26:00,
2013-05-07 08:27:00,54.2,53.9,30.06,ENE,71,19.0,23.0,99,0.00,,,0.00,VWS V14.01,2013-05-07 12:27:00,
2013-05-07 08:28:00,54.2,53.7,30.06,ENE,65,19.0,23.0,98,0.00,,,0.00,VWS V14.01,2013-05-07 12:28:00,
2013-05-07 08:29:00,54.2,53.7,30.06,ENE,62,21.0,24.0,98,0.00,,,0.00,VWS V14.01,2013-05-07 12:29:00,
2013-05-07 08:30:00,54.2,53.7,30.06,ENE,67,18.0,21.0,98,0.00,,OVC002,0.00,VWS V14.01,2013-05-07 12:30:00,
2013-05-07 08:31:00,54.3,53.8,30.06,ENE,67,19.0,21.0,98,0.00,,,0.00,VWS V14.01,2013-05-07 12:31:00,
2013-05-07 08:32:00,54.3,53.8,30.06,NE,54,18.0,21.0,98,0.00,,,0.00,VWS V14.01,2013-05-07 12:32:00,
2013-05-07 08:33:00,54.3,53.8,30.06,ENE,65,14.0,22.0,98,0.00,,,0.00,VWS V14.01,2013-05-07 12:33:00,
2013-05-07 08:34:00,54.3,53.8,30.06,ENE,63,22.0,22.0,98,0.00,,,0.00,VWS V14.01,2013-05-07 12:34:00,
2013-05-07 08:35:00,54.3,53.8,30.06,ENE,71,18.0,22.0,98,0.00,,OVC002,0.00,VWS V14.01,2013-05-07 12:35:00,
2013-05-07 08:36:00,54.2,53.7,30.06,NE,56,20.0,23.0,98,0.00,,,0.00,VWS V14.01,2013-05-07 12:36:00,
2013-05-07 08:37:00,54.2,53.7,30.06,ENE,70,19.0,23.0,98,0.00,,,0.00,VWS V14.01,2013-05-07 12:37:00,
2013-05-07 08:38:00,54.1,53.5,30.06,ENE,65,19.0,21.0,98,0.00,,,0.00,VWS V14.01,2013-05-07 12:38:00,
2013-05-07 08:39:00,54.0,53.5,30.06,ENE,66,16.0,22.0,98,0.00,,,0.00,VWS V14.01,2013-05-07 12:39:00,
2013-05-07 08:40:00,54.0,53.5,30.06,ENE,73,18.0,19.0,98,0.00,,OVC002,0.00,VWS V14.01,2013-05-07 12:40:00,
2013-05-07 08:41:00,54.0,53.5,30.06,ENE,65,18.0,22.0,98,0.00,,,0.00,VWS V14.01,2013-05-07 12:41:00,
2013-05-07 08:42:00,53.9,53.3,30.06,ENE,69,19.0,24.0,98,0.00,,,0.00,VWS V14.01,2013-05-07 12:42:00,
2013-05-07 08:43:00,53.9,53.3,30.06,ENE,63,18.0,23.0,98,0.00,,,0.00,VWS V14.01,2013-05-07 12:43:00,
2013-05-07 08:44:00,53.9,53.3,30.06,ENE,67,21.0,21.0,98,0.00,,,0.00,VWS V14.01,2013-05-07 12:44:00,
2013-05-07 08:45:00,53.9,53.3,30.06,ENE,71,18.0,21.0,98,0.00,,OVC002,0.00,VWS V14.01,2013-05-07 12:45:00,
2013-05-07 08:46:00,54.0,53.5,30.06,ENE,78,21.0,21.0,98,0.00,,,0.00,VWS V14.01,2013-05-07 12:46:00,
2013-05-07 08:47:00,54.0,53.5,30.06,ENE,71,17.0,21.0,98,0.00,,,0.00,VWS V14.01,2013-05-07 12:47:00,
2013-05-07 08:48:00,54.1,53.5,30.06,ENE,63,17.0,20.0,98,0.00,,,0.00,VWS V14.01,2013-05-07 12:48:00,
2013-05-07 08:49:00,54.1,53.5,30.06,ENE,70,19.0,19.0,98,0.00,,,0.00,VWS V14.01,2013-05-07 12:49:00,
2013-05-07 08:50:00,54.1,53.5,30.06,ENE,65,21.0,21.0,98,0.00,,OVC002,0.00,VWS V14.01,2013-05-07 12:50:00,
2013-05-07 08:51:00,54.1,53.5,30.06,ENE,73,21.0,22.0,98,0.00,,,0.00,VWS V14.01,2013-05-07 12:51:00,
2013-05-07 08:52:00,54.2,53.7,30.06,ENE,68,18.0,21.0,98,0.00,,,0.00,VWS V14.01,2013-05-07 12:52:00,
2013-05-07 08:53:00,54.2,53.7,30.06,ENE,69,21.0,21.0,98,0.00,,,0.00,VWS V14.01,2013-05-07 12:53:00,
2013-05-07 08:54:00,54.3,53.8,30.06,ENE,74,21.0,23.0,98,0.00,,,0.00,VWS V14.01,2013-05-07 12:54:00,
2013-05-07 08:55:00,54.3,53.8,30.06,ENE,69,19.0,21.0,98,0.00,,OVC002,0.00,VWS V14.01,2013-05-07 12:55:00,
2013-05-07 08:56:00,54.3,53.8,30.06,ENE,68,17.0,23.0,98,0.00,,,0.00,VWS V14.01,2013-05-07 12:56:00,
2013-05-07 08:57:00,54.4,53.8,30.06,ENE,63,18.0,21.0,98,0.00,,,0.00,VWS V14.01,2013-05-07 12:57:00,
2013-05-07 08:58:00,54.4,53.8,30.06,ENE,62,21.0,22.0,98,0.00,,,0.00,VWS V14.01,2013-05-07 12:58:00,
2013-05-07 08:59:00,54.4,53.8,30.06,ENE,70,18.0,24.0,98,0.00,,,0.00,VWS V14.01,2013-05-07 12:59:00,
2013-05-07 09:00:00,54.4,53.8,30.06,East,82,17.0,19.0,98,0.00,,OVC002,0.00,VWS V14.01,2013-05-07 13:00:00,
2013-05-07 09:01:00,54.5,54.0,30.06,ENE,65,21.0,23.0,98,0.00,,,0.00,VWS V14.01,2013-05-07 13:01:00,
2013-05-07 09:02:00,54.5,54.0,30.06,ENE,60,16.0,21.0,98,0.00,,,0.00,VWS V14.01,2013-05-07 13:02:00,
2013-05-07 09:03:00,54.5,54.0,30.06,ENE,60,22.0,22.0,98,0.00,,,0.00,VWS V14.01,2013-05-07 13:03:00,
2013-05-07 09:04:00,54.5,54.0,30.06,ENE,74,23.0,25.0,98,0.00,,,0.00,VWS V14.01,2013-05-07 13:04:00,
2013-05-07 09:05:00,54.5,54.0,30.06,ENE,69,24.0,24.0,98,0.00,,OVC002,0.00,VWS V14.01,2013-05-07 13:05:00,
2013-05-07 09:06:00,54.4,53.8,30.06,ENE,57,18.0,22.0,98,0.00,,,0.00,VWS V14.01,2013-05-07 13:06:00,
2013-05-07 09:07:00,54.4,53.8,30.06,ENE,63,21.0,21.0,98,0.00,,,0.00,VWS V14.01,2013-05-07 13:07:00,
2013-05-07 09:08:00,54.4,53.8,30.06,ENE,72,22.0,22.0,98,0.00,,,0.00,VWS V14.01,2013-05-07 13:08:00,
2013-05-07 09:09:00,54.4,53.8,30.06,ENE,70,17.0,22.0,98,0.00,,,0.00,VWS V14.01,2013-05-07 13:09:00,
2013-05-07 09:10:00,54.4,53.8,30.06,ENE,71,19.0,19.0,98,0.00,,OVC002,0.00,VWS V14.01,2013-05-07 13:10:00,
2013-05-07 09:11:00,54.4,53.8,30.06,ENE,65,15.0,21.0,98,0.00,,,0.00,VWS V14.01,2013-05-07 13:11:00,
2013-05-07 09:12:00,54.4,53.8,30.06,ENE,63,18.0,21.0,98,0.00,,,0.00,VWS V14.01,2013-05-07 13:12:00,
2013-05-07 09:13:00,54.5,54.0,30.06,ENE,65,19.0,21.0,98,0.00,,,0.00,VWS V14.01,2013-05-07 13:13:00,
2013-05-07 09:14:00,54.5,54.0,30.06,ENE,67,21.0,22.0,98,0.00,,,0.00,VWS V14.01,2013-05-07 13:14:00,
2013-05-07 09:15:00,54.5,54.0,30.06,ENE,72,17.0,21.0,98,0.00,,OVC002,0.00,VWS V14.01,2013-05-07 13:15:00,
2013-05-07 09:16:00,54.6,54.0,30.06,ENE,75,18.0,23.0,98,0.00,,,0.00,VWS V14.01,2013-05-07 13:16:00,
2013-05-07 09:17:00,54.6,54.0,30.06,ENE,68,22.0,22.0,98,0.00,,,0.00,VWS V14.01,2013-05-07 13:17:00,
2013-05-07 09:18:00,54.7,54.2,30.05,ENE,69,24.0,24.0,98,0.00,,,0.00,VWS V14.01,2013-05-07 13:18:00,
2013-05-07 09:19:00,54.8,54.2,30.05,ENE,65,23.0,24.0,98,0.00,,,0.00,VWS V14.01,2013-05-07 13:19:00,
2013-05-07 09:20:00,54.8,54.2,30.06,ENE,74,23.0,23.0,98,0.00,,OVC002,0.00,VWS V14.01,2013-05-07 13:20:00,
2013-05-07 09:21:00,55.0,54.5,30.06,ENE,67,17.0,23.0,98,0.00,,,0.00,VWS V14.01,2013-05-07 13:21:00,
2013-05-07 09:22:00,55.1,54.5,30.05,NE,55,16.0,21.0,98,0.00,,,0.00,VWS V14.01,2013-05-07 13:22:00,
2013-05-07 09:23:00,55.2,54.7,30.05,ENE,75,20.0,25.0,98,0.00,,,0.00,VWS V14.01,2013-05-07 13:23:00,
2013-05-07 09:25:00,55.2,54.7,30.05,ENE,67,19.0,22.0,98,0.00,,OVC002,0.00,VWS V14.01,2013-05-07 13:25:00,
2013-05-07 09:26:00,55.4,54.8,30.06,ENE,72,21.0,22.0,98,0.00,,,0.00,VWS V14.01,2013-05-07 13:26:00,
2013-05-07 09:27:00,55.3,54.8,30.06,East,83,24.0,24.0,98,0.00,,,0.00,VWS V14.01,2013-05-07 13:27:00,
2013-05-07 09:28:00,55.4,54.8,30.05,ENE,78,18.0,24.0,98,0.00,,,0.00,VWS V14.01,2013-05-07 13:28:00,
2013-05-07 09:29:00,55.4,54.8,30.05,ENE,61,23.0,25.0,98,0.00,,,0.00,VWS V14.01,2013-05-07 13:29:00,
2013-05-07 09:30:00,55.4,54.8,30.05,ENE,67,23.0,23.0,98,0.00,,OVC002,0.00,VWS V14.01,2013-05-07 13:30:00,
2013-05-07 09:31:00,55.2,54.7,30.05,ENE,65,18.0,24.0,98,0.00,,,0.00,VWS V14.01,2013-05-07 13:31:00,
2013-05-07 09:32:00,55.2,54.7,30.06,ENE,74,22.0,22.0,98,0.00,,,0.00,VWS V14.01,2013-05-07 13:32:00,
2013-05-07 09:33:00,55.2,54.7,30.05,ENE,61,23.0,23.0,98,0.00,,,0.00,VWS V14.01,2013-05-07 13:33:00,
2013-05-07 09:34:00,55.3,54.8,30.06,East,80,20.0,23.0,98,0.00,,,0.00,VWS V14.01,2013-05-07 13:34:00,
2013-05-07 09:35:00,55.3,54.8,30.05,East,87,19.0,20.0,98,0.00,,OVC002,0.00,VWS V14.01,2013-05-07 13:35:00,
2013-05-07 09:36:00,55.3,54.8,30.05,ENE,70,15.0,22.0,98,0.00,,,0.00,VWS V14.01,2013-05-07 13:36:00,
2013-05-07 09:37:00,55.4,54.8,30.05,ENE,74,21.0,22.0,98,0.00,,,0.00,VWS V14.01,2013-05-07 13:37:00,
2013-05-07 09:38:00,55.4,54.8,30.05,ENE,66,23.0,23.0,98,0.00,,,0.00,VWS V14.01,2013-05-07 13:38:00,
2013-05-07 09:39:00,55.4,54.8,30.05,ENE,69,21.0,23.0,98,0.00,,,0.00,VWS V14.01,2013-05-07 13:39:00,
2013-05-07 09:40:00,55.4,54.8,30.05,East,84,16.0,21.0,98,0.00,,OVC002,0.00,VWS V14.01,2013-05-07 13:40:00,
2013-05-07 09:41:00,55.5,55.0,30.05,ENE,65,22.0,23.0,98,0.00,,,0.00,VWS V14.01,2013-05-07 13:41:00,
2013-05-07 09:42:00,55.5,55.0,30.05,ENE,64,22.0,24.0,98,0.00,,,0.00,VWS V14.01,2013-05-07 13:42:00,
2013-05-07 09:43:00,55.5,55.0,30.05,ENE,67,17.0,24.0,98,0.00,,,0.00,VWS V14.01,2013-05-07 13:43:00,
2013-05-07 09:44:00,55.5,55.0,30.05,ENE,65,23.0,25.0,98,0.00,,,0.00,VWS V14.01,2013-05-07 13:44:00,
2013-05-07 09:45:00,55.5,55.0,30.05,ENE,57,21.0,23.0,98,0.00,,OVC002,0.00,VWS V14.01,2013-05-07 13:45:00,
2013-05-07 09:46:00,55.3,54.8,30.05,ENE,63,22.0,23.0,98,0.00,,,0.00,VWS V14.01,2013-05-07 13:46:00,
2013-05-07 09:47:00,55.3,54.8,30.05,ENE,76,22.0,23.0,98,0.00,,,0.00,VWS V14.01,2013-05-07 13:47:00,
2013-05-07 09:48:00,55.3,54.8,30.05,ENE,67,18.0,22.0,98,0.00,,,0.00,VWS V14.01,2013-05-07 13:48:00,
2013-05-07 09:49:00,55.3,54.8,30.05,ENE,69,15.0,19.0,98,0.00,,,0.00,VWS V14.01,2013-05-07 13:49:00,
2013-05-07 09:50:00,55.4,54.8,30.05,ENE,67,22.0,22.0,98,0.00,,OVC002,0.00,VWS V14.01,2013-05-07 13:50:00,
2013-05-07 09:51:00,55.5,55.0,30.05,ENE,59,17.0,23.0,98,0.00,,,0.00,VWS V14.01,2013-05-07 13:51:00,
2013-05-07 09:52:00,55.5,55.0,30.05,ENE,70,24.0,27.0,98,0.00,,,0.00,VWS V14.01,2013-05-07 13:52:00,
2013-05-07 09:53:00,55.5,55.0,30.05,ENE,63,19.0,24.0,98,0.00,,,0.00,VWS V14.01,2013-05-07 13:53:00,
2013-05-07 09:54:00,55.6,55.0,30.05,ENE,61,25.0,25.0,98,0.00,,,0.00,VWS V14.01,2013-05-07 13:54:00,
2013-05-07 09:55:00,55.6,55.0,30.04,ENE,65,23.0,25.0,98,0.00,,OVC002,0.00,VWS V14.01,2013-05-07 13:55:00,
2013-05-07 09:57:00,55.6,54.8,30.05,ENE,71,24.0,25.0,97,0.00,,,0.00,VWS V14.01,2013-05-07 13:57:00,
2013-05-07 09:58:00,55.6,54.8,30.05,ENE,65,21.0,24.0,97,0.00,,,0.00,VWS V14.01,2013-05-07 13:58:00,
2013-05-07 09:59:00,55.7,54.9,30.05,ENE,74,21.0,24.0,97,0.00,,,0.00,VWS V14.01,2013-05-07 13:59:00,
2013-05-07 10:00:00,55.7,54.9,30.05,ENE,66,22.0,23.0,97,0.00,,OVC002,0.00,VWS V14.01,2013-05-07 14:00:00,
2013-05-07 10:01:00,55.7,54.9,30.05,ENE,75,20.0,22.0,97,0.00,,,0.00,VWS V14.01,2013-05-07 14:01:00,
2013-05-07 10:02:00,55.8,55.0,30.05,ENE,74,18.0,22.0,97,0.00,,,0.00,VWS V14.01,2013-05-07 14:02:00,
2013-05-07 10:03:00,55.9,55.3,30.05,ENE,61,18.0,23.0,98,0.00,,,0.00,VWS V14.01,2013-05-07 14:03:00,
2013-05-07 10:04:00,55.9,55.3,30.05,East,81,23.0,23.0,98,0.00,,,0.00,VWS V14.01,2013-05-07 14:04:00,
2013-05-07 10:05:00,55.9,55.3,30.05,ENE,71,22.0,23.0,98,0.00,,OVC002,0.00,VWS V14.01,2013-05-07 14:05:00,
2013-05-07 10:06:00,56.0,55.2,30.05,ENE,74,21.0,22.0,97,0.00,,,0.00,VWS V14.01,2013-05-07 14:06:00,
2013-05-07 10:07:00,56.0,55.2,30.05,ENE,77,18.0,21.0,97,0.00,,,0.00,VWS V14.01,2013-05-07 14:07:00,
2013-05-07 10:08:00,56.1,55.3,30.05,NE,53,17.0,26.0,97,0.00,,,0.00,VWS V14.01,2013-05-07 14:08:00,
2013-05-07 10:09:00,56.1,55.3,30.05,ENE,63,22.0,24.0,97,0.00,,,0.00,VWS V14.01,2013-05-07 14:09:00,
2013-05-07 10:10:00,56.1,55.3,30.05,ENE,65,16.0,22.0,97,0.00,,OVC002,0.00,VWS V14.01,2013-05-07 14:10:00,
2013-05-07 10:11:00,56.1,55.3,30.05,ENE,68,17.0,22.0,97,0.00,,,0.00,VWS V14.01,2013-05-07 14:11:00,
2013-05-07 10:12:00,56.1,55.3,30.05,ENE,59,20.0,21.0,97,0.00,,,0.00,VWS V14.01,2013-05-07 14:12:00,
2013-05-07 10:13:00,56.1,55.3,30.05,ENE,71,18.0,22.0,97,0.00,,,0.00,VWS V14.01,2013-05-07 14:13:00,
2013-05-07 10:14:00,56.1,55.3,30.05,ENE,70,21.0,21.0,97,0.00,,,0.00,VWS V14.01,2013-05-07 14:14:00,
2013-05-07 10:15:00,56.1,55.3,30.06,ENE,70,21.0,22.0,97,0.00,,OVC002,0.00,VWS V14.01,2013-05-07 14:15:00,
2013-05-07 10:16:00,56.1,55.3,30.05,East,82,19.0,21.0,97,0.00,,,0.00,VWS V14.01,2013-05-07 14:16:00,
2013-05-07 10:17:00,56.2,55.4,30.06,ENE,61,21.0,21.0,97,0.00,,,0.00,VWS V14.01,2013-05-07 14:17:00,
2013-05-07 10:18:00,56.2,55.4,30.05,ENE,67,16.0,21.0,97,0.00,,,0.00,VWS V14.01,2013-05-07 14:18:00,
2013-05-07 10:19:00,56.2,55.4,30.05,ENE,76,22.0,22.0,97,0.00,,,0.00,VWS V14.01,2013-05-07 14:19:00,
2013-05-07 10:20:00,56.2,55.4,30.05,ENE,70,22.0,23.0,97,0.00,,OVC002,0.00,VWS V14.01,2013-05-07 14:20:00,
2013-05-07 10:21:00,56.2,55.4,30.05,ENE,63,18.0,22.0,97,0.00,,,0.00,VWS V14.01,2013-05-07 14:21:00,
2013-05-07 10:22:00,56.3,55.5,30.06,ENE,78,18.0,22.0,97,0.00,,,0.00,VWS V14.01,2013-05-07 14:22:00,
2013-05-07 10:23:00,56.3,55.5,30.05,ENE,70,22.0,23.0,97,0.00,,,0.00,VWS V14.01,2013-05-07 14:23:00,
2013-05-07 10:24:00,56.2,55.1,30.05,ENE,57,20.0,23.0,96,0.00,,,0.00,VWS V14.01,2013-05-07 14:24:00,
2013-05-07 10:25:00,56.2,55.1,30.05,ENE,66,19.0,23.0,96,0.00,,OVC002,0.00,VWS V14.01,2013-05-07 14:25:00,
2013-05-07 10:26:00,56.3,55.2,30.05,ENE,70,22.0,22.0,96,0.00,,,0.00,VWS V14.01,2013-05-07 14:26:00,
2013-05-07 10:27:00,56.4,55.3,30.06,ENE,69,18.0,22.0,96,0.00,,,0.00,VWS V14.01,2013-05-07 14:27:00,
2013-05-07 10:28:00,56.4,55.3,30.06,ENE,68,22.0,22.0,96,0.00,,,0.00,VWS V14.01,2013-05-07 14:28:00,
2013-05-07 10:29:00,56.4,55.3,30.06,ENE,61,14.0,22.0,96,0.00,,,0.00,VWS V14.01,2013-05-07 14:29:00,
2013-05-07 10:30:00,56.4,55.3,30.06,ENE,71,22.0,22.0,96,0.00,,OVC002,0.00,VWS V14.01,2013-05-07 14:30:00,
2013-05-07 10:31:00,56.4,55.3,30.06,ENE,68,14.0,22.0,96,0.00,,,0.00,VWS V14.01,2013-05-07 14:31:00,
2013-05-07 10:32:00,56.4,55.3,30.06,ENE,70,18.0,21.0,96,0.00,,,0.00,VWS V14.01,2013-05-07 14:32:00,
2013-05-07 10:33:00,56.4,55.3,30.06,ENE,69,22.0,22.0,96,0.00,,,0.00,VWS V14.01,2013-05-07 14:33:00,
2013-05-07 10:34:00,56.3,55.2,30.06,ENE,64,23.0,23.0,96,0.00,,,0.00,VWS V14.01,2013-05-07 14:34:00,
2013-05-07 10:35:00,56.4,55.3,30.06,ENE,76,21.0,23.0,96,0.00,,OVC002,0.00,VWS V14.01,2013-05-07 14:35:00,
2013-05-07 10:36:00,56.3,54.9,30.06,ENE,71,19.0,23.0,95,0.00,,,0.00,VWS V14.01,2013-05-07 14:36:00,
2013-05-07 10:37:00,56.2,54.8,30.06,ENE,69,22.0,23.0,95,0.00,,,0.00,VWS V14.01,2013-05-07 14:37:00,
2013-05-07 10:38:00,56.2,54.8,30.06,ENE,71,24.0,24.0,95,0.00,,,0.00,VWS V14.01,2013-05-07 14:38:00,
2013-05-07 10:39:00,56.1,54.7,30.06,ENE,67,24.0,26.0,95,0.00,,,0.00,VWS V14.01,2013-05-07 14:39:00,
2013-05-07 10:40:00,56.1,54.7,30.06,ENE,67,21.0,25.0,95,0.00,,OVC002,0.00,VWS V14.01,2013-05-07 14:40:00,
2013-05-07 10:41:00,55.9,54.5,30.06,ENE,70,16.0,25.0,95,0.00,,,0.00,VWS V14.01,2013-05-07 14:41:00,
2013-05-07 10:42:00,55.8,54.4,30.05,ENE,61,21.0,25.0,95,0.00,,,0.00,VWS V14.01,2013-05-07 14:42:00,
2013-05-07 10:43:00,55.8,54.4,30.05,ENE,72,18.0,24.0,95,0.00,,,0.00,VWS V14.01,2013-05-07 14:43:00,
2013-05-07 10:44:00,55.7,54.3,30.06,ENE,74,22.0,25.0,95,0.00,,,0.00,VWS V14.01,2013-05-07 14:44:00,
2013-05-07 10:45:00,55.7,54.3,30.06,East,84,20.0,24.0,95,0.00,,OVC003,0.00,VWS V14.01,2013-05-07 14:45:00,
2013-05-07 10:46:00,55.6,54.2,30.06,ENE,76,21.0,25.0,95,0.00,,,0.00,VWS V14.01,2013-05-07 14:46:00,
2013-05-07 10:47:00,55.6,54.2,30.06,ENE,74,24.0,24.0,95,0.00,,,0.00,VWS V14.01,2013-05-07 14:47:00,
2013-05-07 10:48:00,55.6,54.2,30.06,ENE,78,22.0,26.0,95,0.00,,,0.00,VWS V14.01,2013-05-07 14:48:00,
2013-05-07 10:49:00,55.5,54.1,30.06,ENE,67,24.0,24.0,95,0.00,,,0.00,VWS V14.01,2013-05-07 14:49:00,
2013-05-07 10:50:00,55.5,54.1,30.06,ENE,62,21.0,24.0,95,0.00,,OVC003,0.00,VWS V14.01,2013-05-07 14:50:00,
2013-05-07 10:51:00,55.4,54.0,30.06,ENE,62,23.0,23.0,95,0.00,,,0.00,VWS V14.01,2013-05-07 14:51:00,
2013-05-07 10:52:00,55.4,54.0,30.06,ENE,73,23.0,23.0,95,0.00,,,0.00,VWS V14.01,2013-05-07 14:52:00,
2013-05-07 10:53:00,55.4,54.0,30.06,ENE,72,23.0,25.0,95,0.00,,,0.00,VWS V14.01,2013-05-07 14:53:00,
2013-05-07 10:55:00,55.3,54.2,30.05,ENE,69,18.0,24.0,96,0.00,,OVC003,0.00,VWS V14.01,2013-05-07 14:55:00,
2013-05-07 10:56:00,55.3,54.2,30.06,ENE,78,16.0,24.0,96,0.00,,,0.00,VWS V14.01,2013-05-07 14:56:00,
2013-05-07 10:57:00,55.3,54.2,30.06,ENE,77,20.0,21.0,96,0.00,,,0.00,VWS V14.01,2013-05-07 14:57:00,
2013-05-07 10:58:00,55.3,54.2,30.05,ENE,65,22.0,23.0,96,0.00,,,0.00,VWS V14.01,2013-05-07 14:58:00,
2013-05-07 10:59:00,55.2,54.1,30.05,ENE,67,24.0,26.0,96,0.00,,,0.00,VWS V14.01,2013-05-07 14:59:00,
2013-05-07 11:00:00,55.1,54.0,30.06,ENE,67,22.0,22.0,96,0.00,,OVC003,0.00,VWS V14.01,2013-05-07 15:00:00,
2013-05-07 11:01:00,55.0,53.9,30.05,ENE,67,23.0,24.0,96,0.00,,,0.00,VWS V14.01,2013-05-07 15:01:00,
2013-05-07 11:02:00,55.0,53.9,30.06,ENE,76,18.0,25.0,96,0.00,,,0.00,VWS V14.01,2013-05-07 15:02:00,
2013-05-07 11:03:00,54.9,53.8,30.06,ENE,71,21.0,24.0,96,0.00,,,0.00,VWS V14.01,2013-05-07 15:03:00,
2013-05-07 11:04:00,54.9,53.8,30.06,ENE,73,25.0,25.0,96,0.00,,,0.00,VWS V14.01,2013-05-07 15:04:00,
2013-05-07 11:05:00,54.9,53.8,30.06,ENE,68,24.0,25.0,96,0.00,,OVC003,0.00,VWS V14.01,2013-05-07 15:05:00,
2013-05-07 11:06:00,54.9,53.8,30.06,ENE,63,19.0,23.0,96,0.00,,,0.00,VWS V14.01,2013-05-07 15:06:00,
2013-05-07 11:07:00,54.9,54.1,30.06,East,82,19.0,22.0,97,0.00,,,0.00,VWS V14.01,2013-05-07 15:07:00,
2013-05-07 11:08:00,54.9,54.1,30.06,ENE,71,18.0,23.0,97,0.00,,,0.00,VWS V14.01,2013-05-07 15:08:00,
2013-05-07 11:09:00,54.9,54.1,30.06,ENE,78,20.0,20.0,97,0.00,,,0.00,VWS V14.01,2013-05-07 15:09:00,
2013-05-07 11:10:00,54.9,54.1,30.06,ENE,62,19.0,20.0,97,0.00,,OVC003,0.00,VWS V14.01,2013-05-07 15:10:00,
2013-05-07 11:11:00,54.9,54.1,30.06,ENE,74,23.0,24.0,97,0.00,,,0.00,VWS V14.01,2013-05-07 15:11:00,
2013-05-07 11:12:00,54.8,54.0,30.06,ENE,75,22.0,23.0,97,0.00,,,0.00,VWS V14.01,2013-05-07 15:12:00,
2013-05-07 11:14:00,54.6,53.5,30.06,ENE,59,17.0,22.0,96,0.02,,,0.02,VWS V14.01,2013-05-07 15:14:00,
2013-05-07 11:15:00,54.8,53.7,30.06,ENE,68,19.0,22.0,96,0.00,,OVC003,0.00,VWS V14.01,2013-05-07 15:15:00,
2013-05-07 11:16:00,54.6,53.5,30.06,ENE,65,23.0,24.0,96,0.03,,,0.03,VWS V14.01,2013-05-07 15:16:00,
2013-05-07 11:17:00,54.5,53.4,30.06,ENE,67,21.0,23.0,96,0.03,,,0.03,VWS V14.01,2013-05-07 15:17:00,
2013-05-07 11:18:00,54.5,53.7,30.06,ENE,64,21.0,25.0,97,0.03,,,0.03,VWS V14.01,2013-05-07 15:18:00,
2013-05-07 11:19:00,54.4,53.6,30.06,ENE,59,19.0,21.0,97,0.03,,,0.03,VWS V14.01,2013-05-07 15:19:00,
2013-05-07 11:20:00,54.4,53.6,30.06,ENE,70,22.0,22.0,97,0.03,,OVC003,0.03,VWS V14.01,2013-05-07 15:20:00,
2013-05-07 11:21:00,54.4,53.6,30.06,ENE,71,18.0,21.0,97,0.03,,,0.03,VWS V14.01,2013-05-07 15:21:00,
2013-05-07 11:23:00,54.4,53.6,30.06,ENE,63,23.0,23.0,97,0.03,,,0.03,VWS V14.01,2013-05-07 15:23:00,
2013-05-07 11:24:00,54.4,53.6,30.06,ENE,73,18.0,23.0,97,0.03,,,0.03,VWS V14.01,2013-05-07 15:24:00,
2013-05-07 11:25:00,54.4,53.6,30.06,ENE,71,18.0,18.0,97,0.03,,OVC002,0.03,VWS V14.01,2013-05-07 15:25:00,
2013-05-07 11:26:00,54.4,53.6,30.06,ENE,71,16.0,20.0,97,0.03,,,0.03,VWS V14.01,2013-05-07 15:26:00,
2013-05-07 11:27:00,54.5,53.7,30.06,ENE,71,15.0,19.0,97,0.03,,,0.03,VWS V14.01,2013-05-07 15:27:00,
2013-05-07 11:28:00,54.5,53.7,30.06,ENE,71,18.0,23.0,97,0.03,,,0.03,VWS V14.01,2013-05-07 15:28:00,
2013-05-07 11:29:00,54.6,53.8,30.06,ENE,60,22.0,24.0,97,0.03,,,0.03,VWS V14.01,2013-05-07 15:29:00,
2013-05-07 11:30:00,54.6,53.8,30.06,ENE,69,23.0,23.0,97,0.03,,OVC002,0.03,VWS V14.01,2013-05-07 15:30:00,
2013-05-07 11:31:00,54.6,53.8,30.06,ENE,69,21.0,26.0,97,0.03,,,0.03,VWS V14.01,2013-05-07 15:31:00,
2013-05-07 11:32:00,54.7,53.9,30.05,ENE,74,24.0,24.0,97,0.03,,,0.03,VWS V14.01,2013-05-07 15:32:00,
2013-05-07 11:33:00,54.8,54.2,30.05,NE,55,24.0,24.0,98,0.03,,,0.03,VWS V14.01,2013-05-07 15:33:00,
2013-05-07 11:34:00,54.9,54.3,30.05,ENE,67,24.0,24.0,98,0.03,,,0.03,VWS V14.01,2013-05-07 15:34:00,
2013-05-07 11:35:00,54.9,54.3,30.05,ENE,74,22.0,24.0,98,0.03,,OVC002,0.03,VWS V14.01,2013-05-07 15:35:00,
2013-05-07 11:36:00,55.1,54.5,30.05,ENE,68,23.0,23.0,98,0.03,,,0.03,VWS V14.01,2013-05-07 15:36:00,
2013-05-07 11:37:00,55.3,54.8,30.05,ENE,61,20.0,25.0,98,0.03,,,0.03,VWS V14.01,2013-05-07 15:37:00,
2013-05-07 11:38:00,55.3,54.8,30.05,ENE,78,18.0,25.0,98,0.03,,,0.03,VWS V14.01,2013-05-07 15:38:00,
2013-05-07 11:39:00,55.3,54.8,30.05,ENE,70,18.0,24.0,98,0.03,,,0.03,VWS V14.01,2013-05-07 15:39:00,
2013-05-07 11:40:00,55.4,54.8,30.05,ENE,66,25.0,25.0,98,0.03,,OVC002,0.03,VWS V14.01,2013-05-07 15:40:00,
2013-05-07 11:41:00,55.4,54.8,30.05,ENE,61,18.0,22.0,98,0.03,,,0.03,VWS V14.01,2013-05-07 15:41:00,
2013-05-07 11:42:00,55.4,54.8,30.05,ENE,69,21.0,22.0,98,0.03,,,0.03,VWS V14.01,2013-05-07 15:42:00,
2013-05-07 11:43:00,55.5,55.0,30.05,ENE,65,22.0,24.0,98,0.03,,,0.03,VWS V14.01,2013-05-07 15:43:00,
2013-05-07 11:44:00,55.6,55.0,30.05,ENE,69,23.0,25.0,98,0.03,,,0.03,VWS V14.01,2013-05-07 15:44:00,
2013-05-07 11:45:00,55.6,55.0,30.05,ENE,75,21.0,23.0,98,0.03,,OVC002,0.03,VWS V14.01,2013-05-07 15:45:00,
2013-05-07 11:46:00,55.7,55.2,30.05,ENE,69,21.0,23.0,98,0.03,,,0.03,VWS V14.01,2013-05-07 15:46:00,
2013-05-07 11:47:00,55.7,55.2,30.05,ENE,67,24.0,24.0,98,0.03,,,0.03,VWS V14.01,2013-05-07 15:47:00,
2013-05-07 11:48:00,55.8,55.2,30.05,ENE,61,20.0,24.0,98,0.03,,,0.03,VWS V14.01,2013-05-07 15:48:00,
2013-05-07 11:49:00,55.9,55.3,30.05,ENE,69,21.0,24.0,98,0.03,,,0.03,VWS V14.01,2013-05-07 15:49:00,
2013-05-07 11:50:00,55.9,55.3,30.05,ENE,77,24.0,24.0,98,0.03,,OVC002,0.03,VWS V14.01,2013-05-07 15:50:00,
2013-05-07 11:51:00,56.0,55.5,30.04,ENE,72,15.0,23.0,98,0.03,,,0.03,VWS V14.01,2013-05-07 15:51:00,
2013-05-07 11:52:00,56.0,55.5,30.05,ENE,73,22.0,23.0,98,0.03,,,0.03,VWS V14.01,2013-05-07 15:52:00,
2013-05-07 11:53:00,56.1,55.5,30.05,ENE,71,24.0,24.0,98,0.03,,,0.03,VWS V14.01,2013-05-07 15:53:00,
2013-05-07 11:54:00,56.1,55.5,30.05,East,86,14.0,24.0,98,0.03,,,0.03,VWS V14.01,2013-05-07 15:54:00,
2013-05-07 11:55:00,56.1,55.5,30.05,ENE,71,15.0,16.0,98,0.03,,OVC002,0.03,VWS V14.01,2013-05-07 15:55:00,
2013-05-07 11:56:00,56.1,55.5,30.05,East,81,19.0,25.0,98,0.03,,,0.03,VWS V14.01,2013-05-07 15:56:00,
2013-05-07 11:57:00,56.1,55.5,30.05,East,80,24.0,26.0,98,0.03,,,0.03,VWS V14.01,2013-05-07 15:57:00,
2013-05-07 11:58:00,56.2,55.7,30.04,ENE,63,18.0,24.0,98,0.03,,,0.03,VWS V14.01,2013-05-07 15:58:00,
2013-05-07 11:59:00,56.2,55.7,30.04,ENE,68,21.0,23.0,98,0.03,,,0.03,VWS V14.01,2013-05-07 15:59:00,
2013-05-07 12:00:00,56.2,55.7,30.05,East,87,21.0,22.0,98,0.03,,OVC002,0.03,VWS V14.01,2013-05-07 16:00:00,
2013-05-07 12:01:00,56.2,55.7,30.05,ENE,75,22.0,23.0,98,0.03,,,0.03,VWS V14.01,2013-05-07 16:01:00,
2013-05-07 12:02:00,56.1,55.3,30.05,ENE,76,21.0,24.0,97,0.03,,,0.03,VWS V14.01,2013-05-07 16:02:00,
2013-05-07 12:03:00,56.0,55.2,30.05,ENE,67,18.0,21.0,97,0.03,,,0.03,VWS V14.01,2013-05-07 16:03:00,
2013-05-07 12:04:00,56.0,55.2,30.05,East,80,15.0,20.0,97,0.03,,,0.03,VWS V14.01,2013-05-07 16:04:00,
2013-05-07 12:05:00,56.0,55.2,30.05,ENE,69,19.0,19.0,97,0.03,,OVC002,0.03,VWS V14.01,2013-05-07 16:05:00,
2013-05-07 12:06:00,55.9,55.1,30.05,ENE,57,14.0,22.0,97,0.03,,,0.03,VWS V14.01,2013-05-07 16:06:00,
2013-05-07 12:07:00,55.8,55.0,30.05,ENE,60,15.0,21.0,97,0.03,,,0.03,VWS V14.01,2013-05-07 16:07:00,
2013-05-07 12:08:00,55.8,55.0,30.05,NE,55,16.0,23.0,97,0.03,,,0.03,VWS V14.01,2013-05-07 16:08:00,
2013-05-07 12:09:00,55.7,54.9,30.05,East,80,22.0,24.0,97,0.03,,,0.03,VWS V14.01,2013-05-07 16:09:00,
2013-05-07 12:10:00,55.7,54.9,30.05,ENE,74,22.0,22.0,97,0.03,,OVC002,0.03,VWS V14.01,2013-05-07 16:10:00,
2013-05-07 12:11:00,55.6,54.8,30.05,ENE,70,18.0,22.0,97,0.03,,,0.03,VWS V14.01,2013-05-07 16:11:00,
2013-05-07 12:12:00,55.6,54.8,30.05,ENE,70,21.0,21.0,97,0.03,,,0.03,VWS V14.01,2013-05-07 16:12:00,
2013-05-07 12:13:00,55.5,54.7,30.06,ENE,71,24.0,24.0,97,0.03,,,0.03,VWS V14.01,2013-05-07 16:13:00,
2013-05-07 12:14:00,55.5,54.7,30.06,ENE,71,22.0,24.0,97,0.01,,,0.03,VWS V14.01,2013-05-07 16:14:00,
2013-05-07 12:15:00,55.5,54.7,30.06,East,80,24.0,24.0,97,0.01,,OVC002,0.03,VWS V14.01,2013-05-07 16:15:00,
2013-05-07 12:16:00,55.4,54.6,30.06,ENE,72,22.0,22.0,97,0.01,,,0.03,VWS V14.01,2013-05-07 16:16:00,
2013-05-07 12:17:00,55.4,54.6,30.06,ENE,68,16.0,22.0,97,0.00,,,0.03,VWS V14.01,2013-05-07 16:17:00,
2013-05-07 12:18:00,55.3,54.5,30.06,ENE,76,21.0,22.0,97,0.00,,,0.03,VWS V14.01,2013-05-07 16:18:00,
2013-05-07 12:19:00,55.4,54.6,30.06,ENE,76,21.0,24.0,97,0.00,,,0.03,VWS V14.01,2013-05-07 16:19:00,
2013-05-07 12:20:00,55.4,54.6,30.06,ENE,74,21.0,21.0,97,0.00,,OVC002,0.03,VWS V14.01,2013-05-07 16:20:00,
2013-05-07 12:21:00,55.4,54.6,30.05,East,83,19.0,22.0,97,0.00,,,0.03,VWS V14.01,2013-05-07 16:21:00,
2013-05-07 12:22:00,55.5,54.7,30.05,ENE,77,20.0,23.0,97,0.00,,,0.03,VWS V14.01,2013-05-07 16:22:00,
2013-05-07 12:23:00,55.5,54.7,30.05,ENE,71,21.0,22.0,97,0.00,,,0.03,VWS V14.01,2013-05-07 16:23:00,
2013-05-07 12:24:00,55.5,54.7,30.05,East,85,24.0,24.0,97,0.00,,,0.03,VWS V14.01,2013-05-07 16:24:00,
2013-05-07 12:25:00,55.5,54.7,30.05,ENE,75,24.0,24.0,97,0.00,,OVC003,0.03,VWS V14.01,2013-05-07 16:25:00,
2013-05-07 12:26:00,55.4,54.6,30.05,ENE,69,21.0,23.0,97,0.00,,,0.03,VWS V14.01,2013-05-07 16:26:00,
2013-05-07 12:27:00,55.5,54.7,30.05,East,80,20.0,21.0,97,0.00,,,0.03,VWS V14.01,2013-05-07 16:27:00,
2013-05-07 12:28:00,55.5,54.7,30.05,East,80,20.0,25.0,97,0.00,,,0.03,VWS V14.01,2013-05-07 16:28:00,
2013-05-07 12:29:00,55.5,54.7,30.05,ENE,73,22.0,24.0,97,0.00,,,0.03,VWS V14.01,2013-05-07 16:29:00,
2013-05-07 12:30:00,55.5,54.7,30.05,East,79,17.0,22.0,97,0.00,,OVC003,0.03,VWS V14.01,2013-05-07 16:30:00,
2013-05-07 12:31:00,55.4,54.6,30.05,ENE,67,22.0,23.0,97,0.00,,,0.03,VWS V14.01,2013-05-07 16:31:00,
2013-05-07 12:32:00,55.4,54.6,30.05,ENE,70,17.0,23.0,97,0.00,,,0.03,VWS V14.01,2013-05-07 16:32:00,
2013-05-07 12:33:00,55.4,54.6,30.05,East,81,15.0,22.0,97,0.00,,,0.03,VWS V14.01,2013-05-07 16:33:00,
2013-05-07 12:34:00,55.4,54.6,30.05,ENE,67,21.0,21.0,97,0.00,,,0.03,VWS V14.01,2013-05-07 16:34:00,
2013-05-07 12:35:00,55.4,54.6,30.05,East,79,20.0,21.0,97,0.00,,OVC003,0.03,VWS V14.01,2013-05-07 16:35:00,
2013-05-07 12:36:00,55.4,54.6,30.05,ENE,75,21.0,22.0,97,0.00,,,0.03,VWS V14.01,2013-05-07 16:36:00,
2013-05-07 12:37:00,55.4,54.6,30.05,ENE,65,22.0,22.0,97,0.00,,,0.03,VWS V14.01,2013-05-07 16:37:00,
2013-05-07 12:38:00,55.4,54.6,30.05,ENE,57,18.0,25.0,97,0.00,,,0.03,VWS V14.01,2013-05-07 16:38:00,
2013-05-07 12:39:00,55.3,54.5,30.05,ENE,67,18.0,22.0,97,0.00,,,0.03,VWS V14.01,2013-05-07 16:39:00,
2013-05-07 12:40:00,55.3,54.5,30.05,ENE,63,12.0,18.0,97,0.00,,OVC003,0.03,VWS V14.01,2013-05-07 16:40:00,
2013-05-07 12:41:00,55.4,54.6,30.05,ENE,71,17.0,21.0,97,0.00,,,0.03,VWS V14.01,2013-05-07 16:41:00,
2013-05-07 12:42:00,55.4,54.6,30.05,ENE,75,17.0,22.0,97,0.00,,,0.03,VWS V14.01,2013-05-07 16:42:00,
2013-05-07 12:43:00,55.4,54.6,30.05,East,81,14.0,22.0,97,0.00,,,0.03,VWS V14.01,2013-05-07 16:43:00,
2013-05-07 12:44:00,55.4,54.6,30.05,ENE,74,20.0,21.0,97,0.00,,,0.03,VWS V14.01,2013-05-07 16:44:00,
2013-05-07 12:45:00,55.4,54.6,30.05,ENE,76,22.0,22.0,97,0.00,,OVC003,0.03,VWS V14.01,2013-05-07 16:45:00,
2013-05-07 12:46:00,55.4,54.6,30.05,ENE,73,21.0,22.0,97,0.00,,,0.03,VWS V14.01,2013-05-07 16:46:00,
2013-05-07 12:47:00,55.4,54.6,30.04,ENE,73,25.0,27.0,97,0.00,,,0.03,VWS V14.01,2013-05-07 16:47:00,
2013-05-07 12:48:00,55.3,54.5,30.04,East,85,24.0,26.0,97,0.00,,,0.03,VWS V14.01,2013-05-07 16:48:00,
2013-05-07 12:49:00,55.3,54.5,30.04,East,94,17.0,24.0,97,0.00,,,0.03,VWS V14.01,2013-05-07 16:49:00,
2013-05-07 12:50:00,55.3,54.5,30.04,East,92,21.0,22.0,97,0.00,,OVC003,0.03,VWS V14.01,2013-05-07 16:50:00,
2013-05-07 12:51:00,55.3,54.5,30.04,ENE,76,20.0,26.0,97,0.00,,,0.03,VWS V14.01,2013-05-07 16:51:00,
2013-05-07 12:52:00,55.3,54.5,30.04,ENE,66,23.0,27.0,97,0.00,,,0.03,VWS V14.01,2013-05-07 16:52:00,
2013-05-07 12:53:00,55.3,54.5,30.04,East,80,22.0,27.0,97,0.00,,,0.03,VWS V14.01,2013-05-07 16:53:00,
2013-05-07 12:54:00,55.3,54.5,30.04,ENE,71,22.0,27.0,97,0.00,,,0.03,VWS V14.01,2013-05-07 16:54:00,
2013-05-07 12:55:00,55.3,54.5,30.04,ENE,76,20.0,22.0,97,0.00,,OVC003,0.03,VWS V14.01,2013-05-07 16:55:00,
2013-05-07 12:56:00,55.3,54.5,30.04,ENE,77,16.0,25.0,97,0.00,,,0.03,VWS V14.01,2013-05-07 16:56:00,
2013-05-07 12:57:00,55.3,54.5,30.04,ENE,66,19.0,23.0,97,0.00,,,0.03,VWS V14.01,2013-05-07 16:57:00,
2013-05-07 12:58:00,55.4,54.6,30.04,ENE,69,23.0,25.0,97,0.00,,,0.03,VWS V14.01,2013-05-07 16:58:00,
2013-05-07 12:59:00,55.4,54.6,30.04,ENE,71,14.0,23.0,97,0.00,,,0.03,VWS V14.01,2013-05-07 16:59:00,
2013-05-07 13:00:00,55.4,54.6,30.04,ENE,77,20.0,22.0,97,0.00,,OVC003,0.03,VWS V14.01,2013-05-07 17:00:00,
2013-05-07 13:01:00,55.4,54.6,30.04,ENE,67,25.0,27.0,97,0.00,,,0.03,VWS V14.01,2013-05-07 17:01:00,
2013-05-07 13:02:00,55.3,54.2,30.03,ENE,68,23.0,25.0,96,0.00,,,0.03,VWS V14.01,2013-05-07 17:02:00,
2013-05-07 13:03:00,55.3,54.2,30.04,ENE,60,22.0,25.0,96,0.00,,,0.03,VWS V14.01,2013-05-07 17:03:00,
2013-05-07 13:04:00,55.3,54.2,30.04,ENE,67,25.0,25.0,96,0.00,,,0.03,VWS V14.01,2013-05-07 17:04:00,
2013-05-07 13:05:00,55.3,54.2,30.03,East,81,24.0,25.0,96,0.00,,OVC003,0.03,VWS V14.01,2013-05-07 17:05:00,
2013-05-07 13:06:00,55.4,54.6,30.04,ENE,68,26.0,26.0,97,0.00,,,0.03,VWS V14.01,2013-05-07 17:06:00,
2013-05-07 13:07:00,55.5,54.7,30.03,East,80,20.0,26.0,97,0.00,,,0.03,VWS V14.01,2013-05-07 17:07:00,
2013-05-07 13:08:00,55.5,54.7,30.03,East,82,22.0,22.0,97,0.00,,,0.03,VWS V14.01,2013-05-07 17:08:00,
2013-05-07 13:09:00,55.7,54.9,30.04,ENE,74,20.0,22.0,97,0.00,,,0.03,VWS V14.01,2013-05-07 17:09:00,
2013-05-07 13:10:00,55.7,54.9,30.04,ENE,59,20.0,20.0,97,0.00,,OVC003,0.03,VWS V14.01,2013-05-07 17:10:00,
2013-05-07 13:11:00,55.9,55.1,30.04,ENE,78,22.0,23.0,97,0.00,,,0.03,VWS V14.01,2013-05-07 17:11:00,
2013-05-07 13:12:00,56.0,55.2,30.04,ENE,69,23.0,25.0,97,0.00,,,0.03,VWS V14.01,2013-05-07 17:12:00,
2013-05-07 13:13:00,56.1,55.3,30.04,ENE,74,23.0,23.0,97,0.00,,,0.03,VWS V14.01,2013-05-07 17:13:00,
2013-05-07 13:14:00,56.3,55.5,30.04,ENE,74,21.0,23.0,97,0.00,,,0.03,VWS V14.01,2013-05-07 17:14:00,
2013-05-07 13:15:00,56.2,55.4,30.04,ENE,69,23.0,23.0,97,0.00,,OVC003,0.03,VWS V14.01,2013-05-07 17:15:00,
2013-05-07 13:16:00,56.5,55.7,30.04,ENE,67,22.0,23.0,97,0.00,,,0.03,VWS V14.01,2013-05-07 17:16:00,
2013-05-07 13:17:00,56.5,55.7,30.04,ENE,70,22.0,26.0,97,0.00,,,0.03,VWS V14.01,2013-05-07 17:17:00,
2013-05-07 13:18:00,56.5,55.7,30.04,East,80,23.0,24.0,97,0.00,,,0.03,VWS V14.01,2013-05-07 17:18:00,
2013-05-07 13:19:00,56.6,55.8,30.04,ENE,75,18.0,24.0,97,0.00,,,0.03,VWS V14.01,2013-05-07 17:19:00,
2013-05-07 13:20:00,56.6,55.8,30.04,East,79,19.0,19.0,97,0.00,,OVC003,0.03,VWS V14.01,2013-05-07 17:20:00,
2013-05-07 13:21:00,56.6,55.5,30.04,ENE,76,20.0,23.0,96,0.00,,,0.03,VWS V14.01,2013-05-07 17:21:00,
2013-05-07 13:22:00,56.7,55.6,30.04,East,86,23.0,23.0,96,0.00,,,0.03,VWS V14.01,2013-05-07 17:22:00,
2013-05-07 13:23:00,56.7,55.6,30.04,ENE,67,22.0,23.0,96,0.00,,,0.03,VWS V14.01,2013-05-07 17:23:00,
2013-05-07 13:24:00,56.7,55.6,30.04,ENE,69,15.0,23.0,96,0.00,,,0.03,VWS V14.01,2013-05-07 17:24:00,
2013-05-07 13:25:00,56.7,55.6,30.04,ENE,76,17.0,17.0,96,0.00,,OVC004,0.03,VWS V14.01,2013-05-07 17:25:00,
2013-05-07 13:26:00,56.8,55.7,30.04,ENE,66,15.0,23.0,96,0.00,,,0.03,VWS V14.01,2013-05-07 17:26:00,
2013-05-07 13:27:00,56.9,55.8,30.04,ENE,72,19.0,22.0,96,0.00,,,0.03,VWS V14.01,2013-05-07 17:27:00,
2013-05-07 13:28:00,56.9,55.8,30.04,ENE,72,17.0,21.0,96,0.00,,,0.03,VWS V14.01,2013-05-07 17:28:00,
2013-05-07 13:29:00,57.0,55.9,30.04,NE,53,20.0,22.0,96,0.00,,,0.03,VWS V14.01,2013-05-07 17:29:00,
2013-05-07 13:30:00,57.0,55.9,30.04,East,82,22.0,22.0,96,0.00,,OVC004,0.03,VWS V14.01,2013-05-07 17:30:00,
2013-05-07 13:31:00,57.2,56.1,30.04,ENE,70,14.0,23.0,96,0.00,,,0.03,VWS V14.01,2013-05-07 17:31:00,
2013-05-07 13:32:00,57.3,56.2,30.04,ENE,62,17.0,22.0,96,0.00,,,0.03,VWS V14.01,2013-05-07 17:32:00,
2013-05-07 13:33:00,57.3,56.2,30.04,East,80,19.0,24.0,96,0.00,,,0.03,VWS V14.01,2013-05-07 17:33:00,
2013-05-07 13:34:00,57.3,55.9,30.04,East,82,20.0,22.0,95,0.00,,,0.03,VWS V14.01,2013-05-07 17:34:00,
2013-05-07 13:35:00,57.3,55.9,30.04,East,85,19.0,20.0,95,0.00,,OVC004,0.03,VWS V14.01,2013-05-07 17:35:00,
2013-05-07 13:36:00,57.4,56.0,30.04,ENE,69,23.0,24.0,95,0.00,,,0.03,VWS V14.01,2013-05-07 17:36:00,
2013-05-07 13:37:00,57.5,56.1,30.04,ENE,73,19.0,23.0,95,0.00,,,0.03,VWS V14.01,2013-05-07 17:37:00,
2013-05-07 13:38:00,57.5,56.1,30.04,ENE,76,22.0,22.0,95,0.00,,,0.03,VWS V14.01,2013-05-07 17:38:00,
2013-05-07 13:39:00,57.5,56.1,30.04,ENE,76,18.0,24.0,95,0.00,,,0.03,VWS V14.01,2013-05-07 17:39:00,
2013-05-07 13:40:00,57.5,56.1,30.04,ENE,76,18.0,24.0,95,0.00,,OVC004,0.03,VWS V14.01,2013-05-07 17:40:00,
2013-05-07 13:41:00,57.6,56.2,30.04,East,82,24.0,24.0,95,0.00,,,0.03,VWS V14.01,2013-05-07 17:41:00,
2013-05-07 13:42:00,57.6,55.9,30.03,East,86,21.0,24.0,94,0.00,,,0.03,VWS V14.01,2013-05-07 17:42:00,
2013-05-07 13:43:00,57.5,55.8,30.03,ENE,67,16.0,21.0,94,0.00,,,0.03,VWS V14.01,2013-05-07 17:43:00,
2013-05-07 13:44:00,57.6,55.9,30.03,ENE,65,19.0,21.0,94,0.00,,,0.03,VWS V14.01,2013-05-07 17:44:00,
2013-05-07 13:45:00,57.6,55.9,30.03,ENE,65,19.0,21.0,94,0.00,,OVC004,0.03,VWS V14.01,2013-05-07 17:45:00,
2013-05-07 13:46:00,57.7,56.0,30.03,ENE,76,18.0,25.0,94,0.00,,,0.03,VWS V14.01,2013-05-07 17:46:00,
2013-05-07 13:47:00,57.7,56.0,30.03,East,80,22.0,23.0,94,0.00,,,0.03,VWS V14.01,2013-05-07 17:47:00,
2013-05-07 13:48:00,57.8,56.1,30.03,East,83,22.0,22.0,94,0.00,,,0.03,VWS V14.01,2013-05-07 17:48:00,
2013-05-07 13:49:00,57.8,56.1,30.03,East,84,18.0,24.0,94,0.00,,,0.03,VWS V14.01,2013-05-07 17:49:00,
2013-05-07 13:50:00,57.8,56.1,30.03,East,82,18.0,18.0,94,0.00,,OVC004,0.03,VWS V14.01,2013-05-07 17:50:00,
2013-05-07 13:51:00,57.9,56.2,30.03,ENE,62,16.0,24.0,94,0.00,,,0.03,VWS V14.01,2013-05-07 17:51:00,
2013-05-07 13:52:00,58.0,56.3,30.03,ENE,68,17.0,20.0,94,0.00,,,0.03,VWS V14.01,2013-05-07 17:52:00,
2013-05-07 13:53:00,58.1,56.4,30.03,ENE,74,21.0,23.0,94,0.00,,,0.03,VWS V14.01,2013-05-07 17:53:00,
2013-05-07 13:54:00,58.1,56.4,30.03,ENE,74,20.0,25.0,94,0.00,,,0.03,VWS V14.01,2013-05-07 17:54:00,
2013-05-07 13:55:00,58.1,56.4,30.03,ENE,76,22.0,22.0,94,0.00,,OVC004,0.03,VWS V14.01,2013-05-07 17:55:00,
2013-05-07 13:56:00,58.2,56.2,30.03,East,82,23.0,26.0,93,0.00,,,0.03,VWS V14.01,2013-05-07 17:56:00,
2013-05-07 13:57:00,58.1,56.1,30.03,ENE,72,16.0,27.0,93,0.00,,,0.03,VWS V14.01,2013-05-07 17:57:00,
2013-05-07 13:58:00,58.1,55.8,30.03,ENE,78,22.0,25.0,92,0.00,,,0.03,VWS V14.01,2013-05-07 17:58:00,
2013-05-07 13:59:00,58.1,55.8,30.03,ENE,76,17.0,22.0,92,0.00,,,0.03,VWS V14.01,2013-05-07 17:59:00,
2013-05-07 14:00:00,58.1,55.8,30.03,East,80,18.0,18.0,92,0.00,,OVC004,0.03,VWS V14.01,2013-05-07 18:00:00,
2013-05-07 14:01:00,58.1,56.1,30.03,East,82,16.0,22.0,93,0.00,,,0.03,VWS V14.01,2013-05-07 18:01:00,
2013-05-07 14:02:00,58.1,56.1,30.03,ENE,77,17.0,22.0,93,0.00,,,0.03,VWS V14.01,2013-05-07 18:02:00,
2013-05-07 14:03:00,58.1,56.1,30.03,East,83,20.0,23.0,93,0.00,,,0.03,VWS V14.01,2013-05-07 18:03:00,